| time (UTC) | temp F | wind direction | speed knots | gust knots | rain 1hr in | rain 24hr in | rain mn in | humidity % | barometer mb |
| 20260905044134 | 0 | 0.0 | 0.0 | 0.00 | 0.00 | 0.00 | 1014.8 | ||
| 20260905044048 | 72 | 25 | 0.0 | 0.9 | 0.00 | 0.00 | 0.00 | 90 | 1014.8 |
| 20260905044037 | 0 | 25 | 0.0 | 0.0 | 0.00 | 0.00 | 0.00 | 1014.8 | |
| 20260905043708 | 72 | 25 | 0.0 | 0.9 | 0.00 | 0.00 | 0.00 | 90 | 1014.8 |
| 20260905043649 | 72 | 25 | 0.0 | 0.9 | 0.00 | 0.00 | 0.00 | 90 | 1014.8 |
| 20260905043255 | 72 | 25 | 0.0 | 0.9 | 0.00 | 0.00 | 0.00 | 90 | 1014.7 |
| 20260905043053 | 72 | 25 | 0.0 | 0.9 | 0.00 | 0.00 | 0.00 | 90 | 1014.8 |
| 20260905043040 | 72 | 27 | 0.0 | 0.9 | 0.00 | 0.00 | 0.00 | 90 | 1014.7 |
| 20260905043025 | 72 | 27 | 0.0 | 0.9 | 0.00 | 0.00 | 0.00 | 90 | 1014.8 |
| 20260905042653 | 72 | 27 | 0.0 | 0.9 | 0.00 | 0.00 | 0.00 | 90 | 1014.8 |
| 20260905042453 | 72 | 25 | 0.0 | 0.0 | 0.00 | 0.00 | 0.00 | 90 | 1014.7 |
| 20260905042254 | 0 | 0.0 | 0.0 | 0.00 | 0.00 | 0.00 | 1014.7 | ||
| 20260905042104 | 0 | 0.0 | 0.0 | 0.00 | 0.00 | 0.00 | |||
| 20260905041844 | 0 | 0.0 | 0.0 | 0.00 | 0.00 | 0.00 | |||
| 20260905041431 | 0 | 0.0 | 0.0 | 0.00 | 0.00 | 0.00 | |||
| 20260905041232 | 0 | 0.0 | 0.0 | 0.00 | 0.00 | 0.00 | |||
| 20260905041130 | 0 | 0.0 | 0.0 | 0.00 | 0.00 | 0.00 | |||
| 20260905041031 | 0 | 0.0 | 0.0 | 0.00 | 0.00 | 0.00 | |||
| 20260905040804 | 0 | 0.0 | 0.0 | 0.00 | 0.00 | 0.00 | 1014.8 | ||
| 20260905040618 | 73 | 31 | 0.0 | 0.0 | 0.00 | 0.00 | 0.00 | 89 | 1014.8 |
| 20260905040604 | 0 | 0.0 | 0.0 | 0.00 | 0.00 | 0.00 | 1014.8 | ||
| 20260905040204 | 73 | 31 | 0.0 | 1.7 | 0.00 | 0.00 | 0.00 | 89 | 1014.8 |
| 20260905040116 | 73 | 31 | 0.0 | 1.7 | 0.00 | 0.00 | 0.00 | 89 | 1014.8 |
| 20260905035950 | 73 | 31 | 0.0 | 1.7 | 0.00 | 0.00 | 0.00 | 89 | 1014.8 |
| 20260905035749 | 73 | 31 | 0.0 | 1.7 | 0.00 | 0.00 | 0.00 | 89 | 1014.7 |
| 20260905035551 | 73 | 31 | 0.0 | 1.7 | 0.00 | 0.00 | 0.00 | 89 | 1014.7 |
| 20260905035353 | 73 | 31 | 0.0 | 0.9 | 0.00 | 0.00 | 0.00 | 89 | 1014.7 |
| 20260905035348 | 73 | 31 | 0.0 | 1.7 | 0.00 | 0.00 | 0.00 | 89 | 1014.7 |
| 20260905035039 | 73 | 31 | 0.0 | 1.7 | 0.00 | 0.00 | 0.00 | 89 | 1014.7 |
| 20260905034940 | 73 | 31 | 0.0 | 1.7 | 0.00 | 0.00 | 0.00 | 89 | 1014.7 |
| 20260905034739 | 73 | 31 | 0.0 | 1.7 | 0.00 | 0.00 | 0.00 | 89 | 1014.7 |
| 20260905034544 | 73 | 31 | 0.0 | 1.7 | 0.00 | 0.00 | 0.00 | 89 | 1014.8 |
| 20260905034535 | 73 | 32 | 0.0 | 1.7 | 0.00 | 0.00 | 0.00 | 89 | 1014.8 |
| 20260905034336 | 73 | 31 | 0.0 | 1.7 | 0.00 | 0.00 | 0.00 | 89 | 1014.8 |
| 20260905034135 | 74 | 32 | 0.0 | 1.7 | 0.00 | 0.00 | 0.00 | 89 | 1015.0 |
| 20260905034041 | 74 | 31 | 0.0 | 1.7 | 0.00 | 0.00 | 0.00 | 89 | 1014.8 |
| 20260905033939 | 0 | 31 | 0.0 | 1.7 | 0.00 | 0.00 | 0.00 | 1015.0 | |
| 20260905033933 | 74 | 32 | 0.0 | 1.7 | 0.00 | 0.00 | 0.00 | 89 | 1014.8 |
| 20260905033535 | 0 | 0.0 | 0.0 | 0.00 | 0.00 | 0.00 | 1015.0 | ||
| 20260905033134 | 0 | 0.0 | 0.0 | 0.00 | 0.00 | 0.00 | |||
| 20260905032908 | 0 | 0.0 | 0.0 | 0.00 | 0.00 | 0.00 | |||
| 20260905032831 | 0 | 0.0 | 0.0 | 0.00 | 0.00 | 0.00 | |||
| 20260905032706 | 0 | 0.0 | 0.0 | 0.00 | 0.00 | 0.00 | |||
| 20260905032506 | 0 | 0.0 | 0.0 | 0.00 | 0.00 | 0.00 | |||
| 20260905032306 | 0 | 0.0 | 0.0 | 0.00 | 0.00 | 0.00 | |||
| 20260905032232 | 0 | 0.0 | 0.0 | 0.00 | 0.00 | 0.00 | 1014.6 | ||
| 20260905031835 | 0 | 0.0 | 0.0 | 0.00 | 0.00 | 0.00 | 1014.6 | ||
| 20260905031802 | 0 | 0.0 | 0.0 | 0.00 | 0.00 | 0.00 | 1014.6 | ||
| 20260905031634 | 74 | 34 | 0.0 | 0.0 | 0.00 | 0.00 | 0.00 | 89 | 1014.6 |
| 20260905031435 | 74 | 34 | 0.0 | 0.0 | 0.00 | 0.00 | 0.00 | 89 | 1014.6 |
| 20260905031307 | 74 | 34 | 0.0 | 0.0 | 0.00 | 0.00 | 0.00 | 89 | 1014.6 |
| 20260905031215 | 74 | 34 | 0.0 | 0.0 | 0.00 | 0.00 | 0.00 | 89 | 1014.6 |
| 20260905031015 | 74 | 34 | 0.0 | 0.0 | 0.00 | 0.00 | 0.00 | 89 | 1014.6 |
| 20260905030826 | 74 | 34 | 0.0 | 0.0 | 0.00 | 0.00 | 0.00 | 89 | 1014.6 |
| 20260905030822 | 74 | 34 | 0.0 | 0.0 | 0.00 | 0.00 | 0.00 | 89 | 1014.6 |
| 20260905030808 | 74 | 34 | 0.0 | 0.0 | 0.00 | 0.00 | 0.00 | 89 | 1014.5 |
| 20260905030415 | 74 | 34 | 0.0 | 0.0 | 0.00 | 0.00 | 0.00 | 89 | 1014.5 |
| 20260905030303 | 74 | 37 | 0.0 | 0.0 | 0.00 | 0.00 | 0.00 | 89 | 1014.5 |
| 20260905030216 | 74 | 37 | 0.0 | 0.0 | 0.00 | 0.00 | 0.00 | 89 | 1014.5 |
| 20260905030012 | 74 | 30 | 0.0 | 0.0 | 0.00 | 0.00 | 0.00 | 89 | 1014.5 |
| 20260905025815 | 74 | 30 | 0.0 | 0.0 | 0.00 | 0.00 | 0.00 | 89 | 1014.4 |
| 20260905025801 | 74 | 30 | 0.0 | 0.0 | 0.00 | 0.00 | 0.00 | 89 | 1014.4 |
| 20260905025614 | 74 | 30 | 0.0 | 0.0 | 0.00 | 0.00 | 0.00 | 89 | 1014.4 |
| 20260905025417 | 74 | 31 | 0.0 | 0.0 | 0.00 | 0.00 | 0.00 | 89 | 1014.4 |
| 20260905025412 | 74 | 30 | 0.0 | 0.0 | 0.00 | 0.00 | 0.00 | 89 | 1014.3 |
| 20260905025306 | 74 | 31 | 0.0 | 0.0 | 0.00 | 0.00 | 0.00 | 89 | 1014.3 |
| 20260905025013 | 74 | 31 | 0.0 | 0.0 | 0.00 | 0.00 | 0.00 | 89 | 1014.3 |
| 20260905024815 | 74 | 31 | 0.0 | 0.0 | 0.00 | 0.00 | 0.00 | 89 | 1014.3 |
| 20260905024759 | 74 | 32 | 0.0 | 0.0 | 0.00 | 0.00 | 0.00 | 89 | 1014.3 |
| 20260905024609 | 74 | 30 | 0.0 | 0.0 | 0.00 | 0.00 | 0.00 | 89 | 1014.2 |
| 20260905024411 | 75 | 31 | 0.0 | 0.0 | 0.00 | 0.00 | 0.00 | 89 | 1014.2 |
| 20260905024259 | 75 | 31 | 0.0 | 0.0 | 0.00 | 0.00 | 0.00 | 89 | 1014.2 |
| 20260905024206 | 75 | 31 | 0.0 | 0.0 | 0.00 | 0.00 | 0.00 | 89 | 1014.2 |
| 20260905024059 | 75 | 31 | 0.0 | 0.0 | 0.00 | 0.00 | 0.00 | 88 | 1014.1 |
| 20260905024049 | 75 | 31 | 0.0 | 0.0 | 0.00 | 0.00 | 0.00 | 88 | 1014.2 |
| 20260905023603 | 0 | 0.0 | 0.0 | 0.00 | 0.00 | 0.00 | |||
| 20260905023311 | 0 | 0.0 | 0.0 | 0.00 | 0.00 | 0.00 | |||
| 20260905023107 | 0 | 0.0 | 0.0 | 0.00 | 0.00 | 0.00 | |||
| 20260905022906 | 0 | 0.0 | 0.0 | 0.00 | 0.00 | 0.00 | |||
| 20260905022823 | 0 | 0.0 | 0.0 | 0.00 | 0.00 | 0.00 | |||
| 20260905022535 | 0 | 0.0 | 0.0 | 0.00 | 0.00 | 0.00 | 1013.8 | ||
| 20260905022237 | 0 | 0.0 | 0.0 | 0.00 | 0.00 | 0.00 | 1013.8 | ||
| 20260905022107 | 0 | 0.0 | 0.0 | 0.00 | 0.00 | 0.00 | 1013.8 | ||
| 20260905022102 | 0 | 0.0 | 0.0 | 0.00 | 0.00 | 0.00 | 1013.8 | ||
| 20260905021845 | 75 | 35 | 0.0 | 0.0 | 0.00 | 0.00 | 0.00 | 87 | 1013.8 |
| 20260905021820 | 75 | 35 | 0.0 | 0.0 | 0.00 | 0.00 | 0.00 | 87 | 1013.8 |
| 20260905021406 | 75 | 35 | 0.0 | 0.0 | 0.00 | 0.00 | 0.00 | 87 | 1013.8 |
| 20260905021206 | 75 | 35 | 0.0 | 0.0 | 0.00 | 0.00 | 0.00 | 87 | 1013.8 |
| 20260905021114 | 75 | 35 | 0.0 | 0.0 | 0.00 | 0.00 | 0.00 | 87 | 1013.8 |
| 20260905021105 | 75 | 35 | 0.0 | 0.0 | 0.00 | 0.00 | 0.00 | 87 | 1013.8 |
| 20260905020915 | 76 | 35 | 0.0 | 0.0 | 0.00 | 0.00 | 0.00 | 87 | 1013.7 |
| 20260905020900 | 76 | 35 | 0.0 | 0.0 | 0.00 | 0.00 | 0.00 | 88 | 1013.8 |
| 20260905020404 | 76 | 34 | 0.0 | 0.0 | 0.00 | 0.00 | 0.00 | 87 | 1013.7 |
| 20260905020204 | 76 | 35 | 0.0 | 0.0 | 0.00 | 0.00 | 0.00 | 87 | 1013.6 |
| 20260905020117 | 76 | 35 | 0.0 | 0.0 | 0.00 | 0.00 | 0.00 | 87 | 1013.7 |
| 20260905020006 | 76 | 35 | 0.0 | 0.0 | 0.00 | 0.00 | 0.00 | 87 | 1013.7 |
| 20260905015805 | 76 | 35 | 0.0 | 0.0 | 0.00 | 0.00 | 0.00 | 87 | 1013.6 |
| 20260905015714 | 0 | 0.0 | 0.0 | 0.00 | 0.00 | 0.00 | 1013.7 | ||
| 20260905015609 | 0 | 0.0 | 0.0 | 0.00 | 0.00 | 0.00 | 1013.7 | ||
| 20260905015010 | 76 | 35 | 0.0 | 0.0 | 0.00 | 0.00 | 0.00 | 87 | 1013.5 |
| 20260905014804 | 76 | 35 | 0.0 | 0.0 | 0.00 | 0.00 | 0.00 | 86 | 1013.6 |
| 20260905014756 | 76 | 35 | 0.0 | 0.0 | 0.00 | 0.00 | 0.00 | 86 | 1013.5 |
| 20260905014629 | 76 | 35 | 0.0 | 0.0 | 0.00 | 0.00 | 0.00 | 86 | 1013.5 |
| 20260905014404 | 76 | 35 | 0.0 | 0.0 | 0.00 | 0.00 | 0.00 | 86 | 1013.5 |
| 20260905014204 | 76 | 35 | 0.0 | 0.0 | 0.00 | 0.00 | 0.00 | 86 | 1013.4 |
| 20260905014129 | 76 | 35 | 0.0 | 0.0 | 0.00 | 0.00 | 0.00 | 86 | 1013.4 |
| 20260905014006 | 76 | 34 | 0.0 | 0.0 | 0.00 | 0.00 | 0.00 | 86 | 1013.5 |
| 20260905013800 | 77 | 34 | 0.0 | 0.0 | 0.00 | 0.00 | 0.00 | 86 | 1013.5 |
| 20260905013635 | 77 | 34 | 0.0 | 0.0 | 0.00 | 0.00 | 0.00 | 86 | 1013.4 |
| 20260905013559 | 77 | 34 | 0.0 | 0.0 | 0.00 | 0.00 | 0.00 | 86 | 1013.4 |
| 20260905013339 | 77 | 35 | 0.0 | 0.0 | 0.00 | 0.00 | 0.00 | 85 | 1013.4 |
| 20260905013332 | 77 | 35 | 0.0 | 0.0 | 0.00 | 0.00 | 0.00 | 86 | 1013.5 |
| 20260905013131 | 77 | 35 | 0.0 | 0.0 | 0.00 | 0.00 | 0.00 | 85 | 1013.4 |
| 20260905013006 | 77 | 35 | 0.0 | 0.0 | 0.00 | 0.00 | 0.00 | 85 | 1013.5 |
| 20260905012730 | 77 | 34 | 0.0 | 0.0 | 0.00 | 0.00 | 0.00 | 85 | 1013.5 |
| 20260905012630 | 77 | 35 | 0.0 | 0.0 | 0.00 | 0.00 | 0.00 | 85 | 1013.5 |
| 20260905012530 | 77 | 35 | 0.0 | 0.0 | 0.00 | 0.00 | 0.00 | 85 | 1013.5 |
| 20260905012331 | 77 | 35 | 0.0 | 0.0 | 0.00 | 0.00 | 0.00 | 85 | 1013.5 |
| 20260905012121 | 77 | 35 | 0.0 | 0.0 | 0.00 | 0.00 | 0.00 | 85 | 1013.4 |
| 20260905011949 | 77 | 35 | 0.0 | 0.0 | 0.00 | 0.00 | 0.00 | 84 | 1013.4 |
| 20260905011941 | 77 | 34 | 0.0 | 0.0 | 0.00 | 0.00 | 0.00 | 85 | 1013.4 |
| 20260905011629 | 77 | 35 | 0.0 | 0.0 | 0.00 | 0.00 | 0.00 | 84 | 1013.4 |
| 20260905011558 | 78 | 35 | 0.0 | 0.0 | 0.00 | 0.00 | 0.00 | 84 | 1013.4 |
| 20260905011544 | 78 | 35 | 0.0 | 0.0 | 0.00 | 0.00 | 0.00 | 84 | 1013.4 |
| 20260905011419 | 78 | 35 | 0.0 | 0.0 | 0.00 | 0.00 | 0.00 | 84 | 1013.4 |
| 20260905010932 | 78 | 35 | 0.0 | 0.0 | 0.00 | 0.00 | 0.00 | 84 | 1013.4 |
| 20260905010701 | 78 | 35 | 0.0 | 0.0 | 0.00 | 0.00 | 0.00 | 84 | 1013.3 |
| 20260905010620 | 78 | 35 | 0.0 | 0.0 | 0.00 | 0.00 | 0.00 | 84 | 1013.4 |
| 20260905010503 | 78 | 35 | 0.0 | 0.0 | 0.00 | 0.00 | 0.00 | 84 | 1013.4 |
| 20260905010457 | 79 | 34 | 0.0 | 0.0 | 0.00 | 0.00 | 0.00 | 84 | 1013.3 |
| 20260905010453 | 79 | 34 | 0.0 | 0.0 | 0.00 | 0.00 | 0.00 | 84 | 1013.3 |
| 20260905010355 | 78 | 35 | 0.0 | 0.0 | 0.00 | 0.00 | 0.00 | 84 | 1013.3 |
| 20260905005915 | 79 | 35 | 0.0 | 0.0 | 0.00 | 0.00 | 0.00 | 84 | 1013.3 |
| 20260905005758 | 79 | 35 | 0.0 | 0.0 | 0.00 | 0.00 | 0.00 | 83 | 1013.3 |
| 20260905005618 | 79 | 35 | 0.0 | 0.0 | 0.00 | 0.00 | 0.00 | 83 | 1013.3 |
| 20260905005458 | 79 | 37 | 0.0 | 0.0 | 0.00 | 0.00 | 0.00 | 83 | 1013.2 |
| 20260905005453 | 79 | 34 | 0.0 | 0.0 | 0.00 | 0.00 | 0.00 | 82 | 1013.2 |
| 20260905005341 | 79 | 35 | 0.0 | 0.0 | 0.00 | 0.00 | 0.00 | 82 | 1013.1 |
| 20260905005059 | 79 | 35 | 0.0 | 0.0 | 0.00 | 0.00 | 0.00 | 82 | 1013.2 |
| 20260905004935 | 80 | 35 | 0.0 | 0.0 | 0.00 | 0.00 | 0.00 | 82 | 1013.2 |
| 20260905004740 | 80 | 35 | 0.0 | 0.0 | 0.00 | 0.00 | 0.00 | 81 | 1013.1 |
| 20260905004606 | 80 | 35 | 0.0 | 0.0 | 0.00 | 0.00 | 0.00 | 81 | 1013.1 |
| 20260905004440 | 80 | 35 | 0.0 | 0.0 | 0.00 | 0.00 | 0.00 | 81 | 1013.1 |
| 20260905004336 | 80 | 35 | 0.0 | 0.0 | 0.00 | 0.00 | 0.00 | 81 | 1013.1 |
| 20260905004104 | 80 | 34 | 0.0 | 0.0 | 0.00 | 0.00 | 0.00 | 81 | 1013.2 |
| 20260905004036 | 80 | 35 | 0.0 | 0.0 | 0.00 | 0.00 | 0.00 | 81 | 1013.1 |
| 20260905003855 | 80 | 37 | 0.0 | 0.0 | 0.00 | 0.00 | 0.00 | 81 | 1013.2 |
| 20260905003636 | 80 | 35 | 0.0 | 0.0 | 0.00 | 0.00 | 0.00 | 80 | 1013.2 |
| 20260905003602 | 81 | 35 | 0.0 | 0.0 | 0.00 | 0.00 | 0.00 | 80 | 1013.2 |
| 20260905003436 | 81 | 35 | 0.0 | 0.0 | 0.00 | 0.00 | 0.00 | 80 | 1013.1 |
| 20260905003234 | 81 | 34 | 0.0 | 0.0 | 0.00 | 0.00 | 0.00 | 80 | 1013.1 |
| 20260905003104 | 81 | 34 | 0.0 | 0.0 | 0.00 | 0.00 | 0.00 | 80 | 1013.2 |
| 20260905003033 | 81 | 35 | 0.0 | 0.0 | 0.00 | 0.00 | 0.00 | 80 | 1013.2 |
| 20260905002835 | 81 | 35 | 0.0 | 0.0 | 0.00 | 0.00 | 0.00 | 80 | 1013.2 |
| 20260905002726 | 82 | 37 | 0.0 | 0.0 | 0.00 | 0.00 | 0.00 | 80 | 1013.3 |
| 20260905002603 | 82 | 37 | 0.0 | 0.0 | 0.00 | 0.00 | 0.00 | 80 | 1013.3 |
| 20260905002431 | 82 | 37 | 0.0 | 0.0 | 0.00 | 0.00 | 0.00 | 79 | 1013.2 |
| 20260905002230 | 82 | 37 | 0.0 | 0.0 | 0.00 | 0.00 | 0.00 | 79 | 1013.2 |
| 20260905002103 | 82 | 38 | 0.0 | 0.0 | 0.00 | 0.00 | 0.00 | 79 | 1013.2 |
| 20260905002003 | 82 | 37 | 0.0 | 0.0 | 0.00 | 0.00 | 0.00 | 79 | 1013.2 |
| 20260905001919 | 83 | 37 | 0.0 | 0.0 | 0.00 | 0.00 | 0.00 | 78 | 1013.1 |
| 20260905001601 | 83 | 35 | 0.0 | 0.0 | 0.00 | 0.00 | 0.00 | 78 | 1013.1 |
| 20260905001400 | 83 | 37 | 0.0 | 0.0 | 0.00 | 0.00 | 0.00 | 78 | 1013.1 |
| 20260905001325 | 83 | 35 | 0.0 | 0.0 | 0.00 | 0.00 | 0.00 | 77 | 1013.1 |
| 20260905001102 | 83 | 35 | 0.0 | 0.0 | 0.00 | 0.00 | 0.00 | 77 | 1013.1 |
| 20260905001001 | 83 | 37 | 0.0 | 0.0 | 0.00 | 0.00 | 0.00 | 77 | 1013.1 |
| 20260905000853 | 85 | 37 | 0.0 | 0.0 | 0.00 | 0.00 | 0.00 | 75 | 1013.0 |
| 20260905000848 | 85 | 37 | 0.0 | 0.0 | 0.00 | 0.00 | 0.00 | 75 | 1013.0 |
| 20260905000835 | 84 | 38 | 0.0 | 0.0 | 0.00 | 0.00 | 0.00 | 76 | 1013.0 |
| 20260905000744 | 84 | 35 | 0.0 | 0.0 | 0.00 | 0.00 | 0.00 | 76 | 1013.0 |
| 20260905000333 | 85 | 37 | 0.0 | 0.0 | 0.00 | 0.00 | 0.00 | 75 | 1013.0 |
| 20260904235957 | 85 | 37 | 0.0 | 0.0 | 0.00 | 0.00 | 0.00 | 75 | 1013.0 |
| 20260904235933 | 85 | 35 | 0.0 | 0.0 | 0.00 | 0.00 | 0.00 | 74 | 1013.0 |
| 20260904235605 | 86 | 35 | 0.0 | 0.0 | 0.00 | 0.00 | 0.00 | 74 | 1013.1 |
| 20260904235535 | 86 | 37 | 0.0 | 0.0 | 0.00 | 0.00 | 0.00 | 74 | 1013.0 |
| 20260904235333 | 86 | 37 | 0.0 | 0.0 | 0.00 | 0.00 | 0.00 | 76 | 1013.1 |
| 20260904235134 | 86 | 37 | 0.0 | 0.0 | 0.00 | 0.00 | 0.00 | 76 | 1013.0 |
| 20260904235103 | 86 | 37 | 0.0 | 0.0 | 0.00 | 0.00 | 0.00 | 76 | 1013.0 |
| 20260904234932 | 86 | 35 | 0.0 | 0.0 | 0.00 | 0.00 | 0.00 | 75 | 1013.0 |
| 20260904234911 | 86 | 37 | 0.0 | 0.0 | 0.00 | 0.00 | 0.00 | 74 | 1013.1 |
| 20260904234603 | 86 | 37 | 0.0 | 0.0 | 0.00 | 0.00 | 0.00 | 74 | 1013.0 |
| 20260904234530 | 86 | 37 | 0.0 | 0.0 | 0.00 | 0.00 | 0.00 | 74 | 1013.0 |
| 20260904234430 | 86 | 38 | 0.0 | 0.9 | 0.00 | 0.00 | 0.00 | 76 | 1013.0 |
| 20260904234130 | 86 | 37 | 0.0 | 0.9 | 0.00 | 0.00 | 0.00 | 75 | 1013.1 |
| 20260904234110 | 86 | 35 | 0.0 | 0.9 | 0.00 | 0.00 | 0.00 | 75 | 1013.1 |
| 20260904233932 | 86 | 35 | 0.0 | 1.7 | 0.00 | 0.00 | 0.00 | 75 | 1013.1 |
| 20260904233758 | 86 | 35 | 0.0 | 1.7 | 0.00 | 0.00 | 0.00 | 75 | 1013.0 |
| 20260904233516 | 86 | 35 | 0.0 | 1.7 | 0.00 | 0.00 | 0.00 | 74 | 1013.0 |
| 20260904233416 | 86 | 35 | 0.0 | 1.7 | 0.00 | 0.00 | 0.00 | 76 | 1012.9 |
| 20260904233116 | 86 | 35 | 0.0 | 1.7 | 0.00 | 0.00 | 0.00 | 75 | 1012.9 |
| 20260904233046 | 86 | 35 | 0.0 | 1.7 | 0.00 | 0.00 | 0.00 | 75 | 1012.9 |
| 20260904233008 | 86 | 35 | 0.0 | 0.9 | 0.00 | 0.00 | 0.00 | 75 | 1012.9 |
| 20260904232721 | 86 | 32 | 0.0 | 0.9 | 0.00 | 0.00 | 0.00 | 75 | 1013.0 |
| 20260904232506 | 86 | 34 | 0.0 | 0.9 | 0.00 | 0.00 | 0.00 | 75 | 1012.9 |
| 20260904232318 | 86 | 34 | 0.0 | 0.0 | 0.00 | 0.00 | 0.00 | 76 | 1012.9 |
| 20260904232105 | 86 | 34 | 0.0 | 0.0 | 0.00 | 0.00 | 0.00 | 75 | 1012.8 |
| 20260904232033 | 86 | 34 | 0.0 | 0.0 | 0.00 | 0.00 | 0.00 | 75 | 1012.9 |
| 20260904232020 | 86 | 35 | 0.0 | 0.0 | 0.00 | 0.00 | 0.00 | 75 | 1012.9 |
| 20260904231926 | 86 | 34 | 0.0 | 0.0 | 0.00 | 0.00 | 0.00 | 75 | 1012.9 |
| 20260904231918 | 86 | 34 | 0.0 | 0.0 | 0.00 | 0.00 | 0.00 | 76 | 1012.9 |
| 20260904231846 | 86 | 34 | 0.0 | 0.0 | 0.00 | 0.00 | 0.00 | 75 | 1012.9 |
| 20260904231301 | 86 | 35 | 0.0 | 0.0 | 0.00 | 0.00 | 0.00 | 75 | 1012.9 |
| 20260904231100 | 86 | 32 | 0.0 | 0.0 | 0.00 | 0.00 | 0.00 | 74 | 1012.8 |
| 20260904231031 | 86 | 34 | 0.0 | 0.0 | 0.00 | 0.00 | 0.00 | 74 | 1012.8 |
| 20260904230902 | 86 | 38 | 0.0 | 0.0 | 0.00 | 0.00 | 0.00 | 74 | 1012.9 |
| 20260904230836 | 86 | 38 | 0.0 | 0.0 | 0.00 | 0.00 | 0.00 | 75 | 1012.8 |
| 20260904230811 | 86 | 37 | 0.0 | 0.0 | 0.00 | 0.00 | 0.00 | 75 | 1012.9 |
| 20260904230503 | 86 | 37 | 0.0 | 0.0 | 0.00 | 0.00 | 0.00 | 76 | 1012.8 |
| 20260904230301 | 86 | 37 | 0.0 | 0.0 | 0.00 | 0.00 | 0.00 | 77 | 1012.8 |
| 20260904230228 | 85 | 38 | 0.0 | 0.0 | 0.00 | 0.00 | 0.00 | 76 | 1012.7 |
| 20260904230031 | 85 | 38 | 0.0 | 0.0 | 0.00 | 0.00 | 0.00 | 76 | 1012.7 |
| 20260904225927 | 85 | 38 | 0.0 | 0.0 | 0.00 | 0.00 | 0.00 | 75 | 1012.7 |
| 20260904225920 | 85 | 38 | 0.0 | 0.0 | 0.00 | 0.00 | 0.00 | 77 | 1012.7 |
| 20260904225903 | 85 | 38 | 0.0 | 0.0 | 0.00 | 0.00 | 0.00 | 75 | 1012.7 |
| 20260904225431 | 85 | 38 | 0.0 | 0.0 | 0.00 | 0.00 | 0.00 | 77 | 1012.8 |
| 20260904225230 | 85 | 37 | 0.0 | 0.0 | 0.00 | 0.00 | 0.00 | 77 | 1012.7 |
| 20260904225012 | 85 | 37 | 0.0 | 0.0 | 0.00 | 0.00 | 0.00 | 77 | 1012.7 |
| 20260904224803 | 85 | 38 | 0.0 | 0.0 | 0.00 | 0.00 | 0.00 | 77 | 1012.7 |
| 20260904224741 | 85 | 38 | 0.0 | 0.0 | 0.00 | 0.00 | 0.00 | 77 | 1012.7 |
| 20260904224511 | 85 | 37 | 0.0 | 0.9 | 0.00 | 0.00 | 0.00 | 76 | 1012.7 |
| 20260904224406 | 85 | 38 | 0.0 | 0.9 | 0.00 | 0.00 | 0.00 | 76 | 1012.6 |
| 20260904224305 | 86 | 37 | 0.0 | 2.6 | 0.00 | 0.00 | 0.00 | 76 | 1012.7 |
| 20260904224008 | 86 | 37 | 0.0 | 3.5 | 0.00 | 0.00 | 0.00 | 76 | 1012.6 |
| 20260904223806 | 86 | 37 | 0.0 | 3.5 | 0.00 | 0.00 | 0.00 | 76 | 1012.6 |
| 20260904223607 | 86 | 37 | 0.0 | 3.5 | 0.00 | 0.00 | 0.00 | 76 | 1012.6 |
| 20260904223515 | 86 | 38 | 0.0 | 3.5 | 0.00 | 0.00 | 0.00 | 76 | 1012.5 |
| 20260904223404 | 86 | 37 | 0.0 | 3.5 | 0.00 | 0.00 | 0.00 | 76 | 1012.6 |
| 20260904223305 | 86 | 31 | 0.0 | 3.5 | 0.00 | 0.00 | 0.00 | 76 | 1012.7 |
| 20260904223006 | 86 | 17 | 0.0 | 1.7 | 0.00 | 0.00 | 0.00 | 76 | 1012.6 |
| 20260904222816 | 86 | 17 | 0.0 | 1.7 | 0.00 | 0.00 | 0.00 | 76 | 1012.6 |
| 20260904222604 | 86 | 17 | 0.0 | 1.7 | 0.00 | 0.00 | 0.00 | 76 | 1012.6 |
| 20260904222545 | 86 | 14 | 0.0 | 1.7 | 0.00 | 0.00 | 0.00 | 75 | 1012.7 |
| 20260904222513 | 86 | 16 | 0.0 | 1.7 | 0.00 | 0.00 | 0.00 | 76 | 1012.7 |
| 20260904222205 | 86 | 14 | 0.0 | 0.9 | 0.00 | 0.00 | 0.00 | 77 | 1012.6 |
| 20260904222111 | 86 | 14 | 0.0 | 2.6 | 0.00 | 0.00 | 0.00 | 76 | 1012.6 |
| 20260904222006 | 86 | 14 | 0.0 | 2.6 | 0.00 | 0.00 | 0.00 | 76 | 1012.6 |
| 20260904221803 | 86 | 13 | 0.0 | 2.6 | 0.00 | 0.00 | 0.00 | 77 | 1012.6 |
| 20260904221604 | 87 | 13 | 0.0 | 2.6 | 0.00 | 0.00 | 0.00 | 75 | 1012.5 |
| 20260904221543 | 87 | 13 | 0.0 | 2.6 | 0.00 | 0.00 | 0.00 | 75 | 1012.6 |
| 20260904221408 | 87 | 13 | 0.0 | 2.6 | 0.00 | 0.00 | 0.00 | 75 | 1012.5 |
| 20260904221155 | 87 | 14 | 0.0 | 2.6 | 0.00 | 0.00 | 0.00 | 75 | 1012.5 |
| 20260904221104 | 87 | 324 | 0.0 | 0.0 | 0.00 | 0.00 | 0.00 | 76 | 1012.3 |
| 20260904221002 | 87 | 324 | 0.0 | 0.0 | 0.00 | 0.00 | 0.00 | 76 | 1012.3 |
| 20260904220746 | 0 | 0.0 | 0.0 | 0.00 | 0.00 | 0.00 | |||
| 20260904220635 | 0 | 0.0 | 0.0 | 0.00 | 0.00 | 0.00 | |||
| 20260904220550 | 0 | 0.0 | 0.0 | 0.00 | 0.00 | 0.00 | |||
| 20260904220238 | 0 | 0.0 | 0.0 | 0.00 | 0.00 | 0.00 | |||
| 20260904220009 | 0 | 0.0 | 0.0 | 0.00 | 0.00 | 0.00 | |||
| 20260904215812 | 0 | 0.0 | 0.0 | 0.00 | 0.00 | 0.00 | |||
| 20260904215710 | 0 | 0.0 | 0.0 | 0.00 | 0.00 | 0.00 | 1012.2 | ||
| 20260904215620 | 0 | 0.0 | 0.0 | 0.00 | 0.00 | 0.00 | 1012.2 | ||
| 20260904215507 | 0 | 0.0 | 0.0 | 0.00 | 0.00 | 0.00 | 1012.2 | ||
| 20260904215202 | 0 | 0.0 | 0.0 | 0.00 | 0.00 | 0.00 | 1012.2 | ||
| 20260904215136 | 87 | 11 | 0.0 | 1.7 | 0.00 | 0.00 | 0.00 | 74 | 1012.2 |
| 20260904215050 | 87 | 11 | 0.0 | 2.6 | 0.00 | 0.00 | 0.00 | 74 | 1012.2 |
| 20260904214949 | 87 | 11 | 0.0 | 2.6 | 0.00 | 0.00 | 0.00 | 74 | 1012.1 |
| 20260904214928 | 87 | 11 | 0.0 | 2.6 | 0.00 | 0.00 | 0.00 | 74 | 1012.2 |
| 20260904214531 | 87 | 11 | 0.0 | 3.5 | 0.00 | 0.00 | 0.00 | 74 | 1012.2 |
| 20260904214328 | 87 | 11 | 0.0 | 3.5 | 0.00 | 0.00 | 0.00 | 74 | 1012.2 |
| 20260904214124 | 87 | 13 | 0.0 | 3.5 | 0.00 | 0.00 | 0.00 | 74 | 1012.1 |
| 20260904214056 | 88 | 13 | 0.0 | 3.5 | 0.00 | 0.00 | 0.00 | 73 | 1012.2 |
| 20260904213924 | 87 | 13 | 0.0 | 3.5 | 0.00 | 0.00 | 0.00 | 74 | 1012.2 |
| 20260904213918 | 88 | 37 | 0.0 | 2.6 | 0.00 | 0.00 | 0.00 | 74 | 1012.2 |
| 20260904213549 | 88 | 44 | 0.0 | 3.5 | 0.00 | 0.00 | 0.00 | 75 | 1012.3 |
| 20260904213306 | 88 | 41 | 0.0 | 3.5 | 0.00 | 0.00 | 0.00 | 74 | 1012.2 |
| 20260904213135 | 88 | 42 | 0.0 | 3.5 | 0.00 | 0.00 | 0.00 | 73 | 1012.2 |
| 20260904213106 | 88 | 52 | 0.0 | 3.5 | 0.00 | 0.00 | 0.00 | 73 | 1012.2 |
| 20260904213006 | 88 | 48 | 0.0 | 3.5 | 0.00 | 0.00 | 0.00 | 75 | 1012.2 |
| 20260904212957 | 88 | 48 | 0.0 | 3.5 | 0.00 | 0.00 | 0.00 | 75 | 1012.2 |
| 20260904212850 | 88 | 48 | 0.0 | 3.5 | 0.00 | 0.00 | 0.00 | 75 | 1012.2 |
| 20260904212551 | 88 | 45 | 0.0 | 2.6 | 0.00 | 0.00 | 0.00 | 73 | 1012.2 |
| 20260904212343 | 88 | 124 | 0.0 | 2.6 | 0.00 | 0.00 | 0.00 | 76 | 1012.3 |
| 20260904212131 | 88 | 0 | 0.0 | 2.6 | 0.00 | 0.00 | 0.00 | 76 | 1012.2 |
| 20260904212030 | 88 | 0 | 0.0 | 3.5 | 0.00 | 0.00 | 0.00 | 76 | 1012.2 |
| 20260904211902 | 88 | 0 | 0.0 | 3.5 | 0.00 | 0.00 | 0.00 | 76 | 1012.2 |
| 20260904211630 | 88 | 0 | 0.0 | 3.5 | 0.00 | 0.00 | 0.00 | 76 | 1012.2 |
| 20260904211430 | 88 | 13 | 0.0 | 3.5 | 0.00 | 0.00 | 0.00 | 75 | 1012.2 |
| 20260904211235 | 88 | 92 | 0.0 | 3.5 | 0.00 | 0.00 | 0.00 | 74 | 1012.3 |
| 20260904211146 | 89 | 49 | 0.0 | 2.6 | 0.00 | 0.00 | 0.00 | 75 | 1012.2 |
| 20260904211135 | 88 | 96 | 0.0 | 3.5 | 0.00 | 0.00 | 0.00 | 75 | 1012.3 |
| 20260904210832 | 89 | 49 | 0.0 | 2.6 | 0.00 | 0.00 | 0.00 | 75 | 1012.2 |
| 20260904210749 | 89 | 49 | 0.0 | 2.6 | 0.00 | 0.00 | 0.00 | 75 | 1012.3 |
| 20260904210644 | 89 | 49 | 0.0 | 2.6 | 0.00 | 0.00 | 0.00 | 75 | 1012.3 |
| 20260904210430 | 88 | 51 | 0.0 | 2.6 | 0.00 | 0.00 | 0.00 | 74 | 1012.2 |
| 20260904210349 | 88 | 165 | 0.0 | 2.6 | 0.00 | 0.00 | 0.00 | 74 | 1012.3 |
| 20260904210128 | 88 | 165 | 0.0 | 2.6 | 0.00 | 0.00 | 0.00 | 74 | 1012.3 |
| 20260904210030 | 88 | 166 | 0.0 | 2.6 | 0.00 | 0.00 | 0.00 | 75 | 1012.2 |
| 20260904205835 | 88 | 166 | 0.0 | 2.6 | 0.00 | 0.00 | 0.00 | 77 | 1012.4 |
| 20260904205628 | 88 | 166 | 0.0 | 2.6 | 0.00 | 0.00 | 0.00 | 76 | 1012.3 |
| 20260904205447 | 88 | 169 | 0.0 | 2.6 | 0.00 | 0.00 | 0.00 | 76 | 1012.4 |
| 20260904205406 | 88 | 168 | 0.0 | 1.7 | 0.00 | 0.00 | 0.00 | 75 | 1012.4 |
| 20260904205129 | 88 | 168 | 0.0 | 1.7 | 0.00 | 0.00 | 0.00 | 75 | 1012.3 |
| 20260904205028 | 88 | 166 | 0.0 | 1.7 | 0.00 | 0.00 | 0.00 | 75 | 1012.4 |
| 20260904204932 | 89 | 149 | 0.0 | 1.7 | 0.00 | 0.00 | 0.00 | 76 | 1012.4 |
| 20260904204633 | 88 | 134 | 0.0 | 1.7 | 0.00 | 0.00 | 0.00 | 75 | 1012.3 |
| 20260904204432 | 89 | 203 | 0.0 | 1.7 | 0.00 | 0.00 | 0.00 | 75 | 1012.3 |
| 20260904204228 | 88 | 203 | 0.0 | 1.7 | 0.00 | 0.00 | 0.00 | 75 | 1012.3 |
| 20260904204128 | 88 | 203 | 0.0 | 1.7 | 0.00 | 0.00 | 0.00 | 75 | 1012.3 |
| 20260904204013 | 88 | 203 | 0.0 | 4.3 | 0.00 | 0.00 | 0.00 | 75 | 1012.2 |
| 20260904203910 | 88 | 203 | 0.0 | 4.3 | 0.00 | 0.00 | 0.00 | 77 | 1012.2 |
| 20260904203611 | 88 | 203 | 0.0 | 4.3 | 0.00 | 0.00 | 0.00 | 76 | 1012.3 |
| 20260904203502 | 88 | 203 | 0.0 | 4.3 | 0.00 | 0.00 | 0.00 | 78 | 1012.3 |
| 20260904203221 | 87 | 203 | 0.0 | 4.3 | 0.00 | 0.00 | 0.00 | 77 | 1012.4 |
| 20260904203105 | 87 | 199 | 0.0 | 3.5 | 0.00 | 0.00 | 0.00 | 76 | 1012.3 |
| 20260904203005 | 88 | 54 | 0.0 | 2.6 | 0.00 | 0.00 | 0.00 | 78 | 1012.4 |
| 20260904202802 | 88 | 52 | 0.0 | 2.6 | 0.00 | 0.00 | 0.00 | 79 | 1012.5 |
| 20260904202606 | 88 | 58 | 0.0 | 2.6 | 0.00 | 0.00 | 0.00 | 76 | 1012.4 |
| 20260904202458 | 88 | 55 | 0.0 | 2.6 | 0.00 | 0.00 | 0.00 | 77 | 1012.3 |
| 20260904202203 | 88 | 48 | 0.0 | 2.6 | 0.00 | 0.00 | 0.00 | 78 | 1012.4 |
| 20260904202103 | 88 | 48 | 0.0 | 3.5 | 0.00 | 0.00 | 0.00 | 79 | 1012.4 |
| 20260904202002 | 87 | 49 | 0.0 | 3.5 | 0.00 | 0.00 | 0.00 | 78 | 1012.3 |
| 20260904201804 | 87 | 49 | 0.0 | 3.5 | 0.00 | 0.00 | 0.00 | 78 | 1012.3 |
| 20260904201605 | 87 | 69 | 0.0 | 3.5 | 0.00 | 0.00 | 0.00 | 79 | 1012.3 |
| 20260904201502 | 87 | 65 | 0.0 | 3.5 | 0.00 | 0.00 | 0.00 | 77 | 1012.3 |
| 20260904201215 | 87 | 55 | 0.0 | 3.5 | 0.00 | 0.00 | 0.00 | 77 | 1012.3 |
| 20260904201106 | 88 | 37 | 0.0 | 3.5 | 0.00 | 0.00 | 0.00 | 78 | 1012.3 |
| 20260904201102 | 88 | 196 | 0.0 | 3.5 | 0.00 | 0.00 | 0.00 | 79 | 1012.4 |
| 20260904200802 | 87 | 27 | 0.0 | 3.5 | 0.00 | 0.00 | 0.00 | 77 | 1012.3 |
| 20260904200619 | 87 | 27 | 0.0 | 3.5 | 0.00 | 0.00 | 0.00 | 78 | 1012.4 |
| 20260904200418 | 87 | 83 | 0.0 | 3.5 | 0.00 | 0.00 | 0.00 | 79 | 1012.3 |
| 20260904200207 | 87 | 0 | 0.0 | 3.5 | 0.00 | 0.00 | 0.00 | 79 | 1012.2 |
| 20260904200153 | 87 | 0 | 0.0 | 2.6 | 0.00 | 0.00 | 0.00 | 78 | 1012.2 |
| 20260904200115 | 87 | 34 | 0.0 | 3.5 | 0.00 | 0.00 | 0.00 | 78 | 1012.2 |
| 20260904195802 | 87 | 18 | 0.0 | 2.6 | 0.00 | 0.00 | 0.00 | 79 | 1012.3 |
| 20260904195708 | 87 | 0 | 0.0 | 3.5 | 0.00 | 0.00 | 0.00 | 78 | 1012.3 |
| 20260904195604 | 87 | 0 | 0.0 | 3.5 | 0.00 | 0.00 | 0.00 | 78 | 1012.3 |
| 20260904195508 | 87 | 21 | 0.0 | 5.2 | 0.00 | 0.00 | 0.00 | 77 | 1012.3 |
| 20260904195447 | 87 | 0 | 0.0 | 5.2 | 0.00 | 0.00 | 0.00 | 79 | 1012.2 |
| 20260904195419 | 87 | 23 | 0.0 | 5.2 | 0.00 | 0.00 | 0.00 | 78 | 1012.3 |
| 20260904195003 | 87 | 35 | 0.0 | 5.2 | 0.00 | 0.00 | 0.00 | 81 | 1012.3 |
| 20260904194803 | 87 | 34 | 0.0 | 5.2 | 0.00 | 0.00 | 0.00 | 80 | 1012.4 |
| 20260904194707 | 87 | 42 | 0.0 | 5.2 | 0.00 | 0.00 | 0.00 | 78 | 1012.3 |
| 20260904194604 | 87 | 42 | 0.0 | 5.2 | 0.00 | 0.00 | 0.00 | 78 | 1012.3 |
| 20260904194504 | 86 | 34 | 0.0 | 5.2 | 0.00 | 0.00 | 0.00 | 81 | 1012.4 |
| 20260904194442 | 87 | 48 | 0.0 | 5.2 | 0.00 | 0.00 | 0.00 | 79 | 1012.4 |
| 20260904194410 | 86 | 31 | 0.0 | 5.2 | 0.00 | 0.00 | 0.00 | 81 | 1012.3 |
| 20260904194005 | 86 | 34 | 0.0 | 5.2 | 0.00 | 0.00 | 0.00 | 81 | 1012.4 |
| 20260904193803 | 86 | 144 | 0.0 | 4.3 | 0.00 | 0.00 | 0.00 | 79 | 1012.4 |
| 20260904193611 | 87 | 66 | 0.0 | 4.3 | 0.00 | 0.00 | 0.00 | 77 | 1012.4 |
| 20260904193546 | 87 | 24 | 0.0 | 3.5 | 0.00 | 0.00 | 0.00 | 80 | 1012.4 |
| 20260904193534 | 87 | 68 | 0.0 | 4.3 | 0.00 | 0.00 | 0.00 | 80 | 1012.4 |
| 20260904193412 | 87 | 23 | 0.0 | 3.5 | 0.00 | 0.00 | 0.00 | 79 | 1012.4 |
| 20260904193407 | 87 | 3 | 0.0 | 2.6 | 0.00 | 0.00 | 0.00 | 80 | 1012.4 |
| 20260904192952 | 87 | 23 | 0.0 | 3.5 | 0.00 | 0.00 | 0.00 | 79 | 1012.5 |
| 20260904192754 | 87 | 23 | 0.0 | 3.5 | 0.00 | 0.00 | 0.00 | 80 | 1012.4 |
| 20260904192531 | 87 | 16 | 0.0 | 3.5 | 0.00 | 0.00 | 0.00 | 80 | 1012.4 |
| 20260904192351 | 87 | 16 | 0.0 | 3.5 | 0.00 | 0.00 | 0.00 | 80 | 1012.3 |
| 20260904192151 | 87 | 20 | 0.0 | 4.3 | 0.00 | 0.00 | 0.00 | 80 | 1012.3 |
| 20260904192143 | 86 | 75 | 0.0 | 4.3 | 0.00 | 0.00 | 0.00 | 81 | 1012.3 |
| 20260904192031 | 86 | 21 | 0.0 | 4.3 | 0.00 | 0.00 | 0.00 | 81 | 1012.4 |
| 20260904191850 | 86 | 79 | 0.0 | 4.3 | 0.00 | 0.00 | 0.00 | 80 | 1012.3 |
| 20260904191532 | 86 | 337 | 0.0 | 4.3 | 0.00 | 0.00 | 0.00 | 80 | 1012.4 |
| 20260904191339 | 86 | 337 | 0.0 | 4.3 | 0.00 | 0.00 | 0.00 | 80 | 1012.4 |
| 20260904191140 | 86 | 24 | 0.0 | 3.5 | 0.00 | 0.00 | 0.00 | 80 | 1012.4 |
| 20260904191029 | 86 | 154 | 0.0 | 3.5 | 0.00 | 0.00 | 0.00 | 80 | 1012.5 |
| 20260904190937 | 86 | 45 | 0.0 | 3.5 | 0.00 | 0.00 | 0.00 | 81 | 1012.3 |
| 20260904190741 | 86 | 45 | 0.0 | 4.3 | 0.00 | 0.00 | 0.00 | 78 | 1012.4 |
| 20260904190540 | 87 | 0 | 0.0 | 4.3 | 0.00 | 0.00 | 0.00 | 80 | 1012.4 |
| 20260904190338 | 87 | 353 | 0.0 | 4.3 | 0.00 | 0.00 | 0.00 | 81 | 1012.4 |
| 20260904190136 | 87 | 31 | 0.0 | 4.3 | 0.00 | 0.00 | 0.00 | 80 | 1012.3 |
| 20260904190111 | 87 | 18 | 0.0 | 4.3 | 0.00 | 0.00 | 0.00 | 77 | 1012.4 |
| 20260904190029 | 87 | 31 | 0.0 | 4.3 | 0.00 | 0.00 | 0.00 | 78 | 1012.4 |
| 20260904185740 | 88 | 188 | 0.0 | 3.5 | 0.00 | 0.00 | 0.00 | 80 | 1012.4 |
| 20260904185658 | 88 | 8 | 0.0 | 3.5 | 0.00 | 0.00 | 0.00 | 82 | 1012.4 |
| 20260904185529 | 88 | 8 | 0.0 | 3.5 | 0.00 | 0.00 | 0.00 | 80 | 1012.4 |
| 20260904185336 | 88 | 10 | 0.0 | 3.5 | 0.00 | 0.00 | 0.00 | 79 | 1012.3 |
| 20260904185206 | 87 | 21 | 0.0 | 3.5 | 0.00 | 0.00 | 0.00 | 82 | 1012.4 |
| 20260904185043 | 87 | 21 | 0.0 | 3.5 | 0.00 | 0.00 | 0.00 | 82 | 1012.4 |
| 20260904184931 | 87 | 21 | 0.0 | 3.5 | 0.00 | 0.00 | 0.00 | 82 | 1012.2 |
| 20260904184730 | 0 | 23 | 0.0 | 0.0 | 0.00 | 0.00 | 0.00 | 1012.3 | |
| 20260904184704 | 0 | 0.0 | 0.0 | 0.00 | 0.00 | 0.00 | 1012.3 | ||
| 20260904184602 | 0 | 0.0 | 0.0 | 0.00 | 0.00 | 0.00 | 1012.3 | ||
| 20260904184307 | 0 | 0.0 | 0.0 | 0.00 | 0.00 | 0.00 | |||
| 20260904184207 | 0 | 0.0 | 0.0 | 0.00 | 0.00 | 0.00 | |||
| 20260904183909 | 0 | 0.0 | 0.0 | 0.00 | 0.00 | 0.00 | |||
| 20260904183726 | 0 | 0.0 | 0.0 | 0.00 | 0.00 | 0.00 | |||
| 20260904183722 | 0 | 0.0 | 0.0 | 0.00 | 0.00 | 0.00 | |||
| 20260904183650 | 0 | 0.0 | 0.0 | 0.00 | 0.00 | 0.00 | |||
| 20260904183259 | 0 | 0.0 | 0.0 | 0.00 | 0.00 | 0.00 | 1012.4 | ||
| 20260904183234 | 0 | 0.0 | 0.0 | 0.00 | 0.00 | 0.00 | 1012.4 | ||
| 20260904183206 | 0 | 0.0 | 0.0 | 0.00 | 0.00 | 0.00 | 1012.4 | ||
| 20260904182836 | 0 | 0.0 | 0.0 | 0.00 | 0.00 | 0.00 | 1012.4 | ||
| 20260904182711 | 87 | 27 | 0.0 | 1.7 | 0.00 | 0.00 | 0.00 | 81 | 1012.4 |
| 20260904182519 | 87 | 27 | 0.0 | 4.3 | 0.00 | 0.00 | 0.00 | 81 | 1012.4 |
| 20260904182411 | 87 | 27 | 0.0 | 4.3 | 0.00 | 0.00 | 0.00 | 81 | 1012.4 |
| 20260904182159 | 87 | 27 | 0.0 | 4.3 | 0.00 | 0.00 | 0.00 | 81 | 1012.3 |
| 20260904182142 | 87 | 27 | 0.0 | 4.3 | 0.00 | 0.00 | 0.00 | 81 | 1012.4 |
| 20260904182112 | 87 | 27 | 0.0 | 4.3 | 0.00 | 0.00 | 0.00 | 81 | 1012.3 |
| 20260904181742 | 87 | 27 | 0.0 | 4.3 | 0.00 | 0.00 | 0.00 | 81 | 1012.3 |
| 20260904181542 | 87 | 27 | 0.0 | 4.3 | 0.00 | 0.00 | 0.00 | 81 | 1012.4 |
| 20260904181344 | 87 | 28 | 0.0 | 2.6 | 0.00 | 0.00 | 0.00 | 81 | 1012.4 |
| 20260904181204 | 87 | 41 | 0.0 | 2.6 | 0.00 | 0.00 | 0.00 | 80 | 1012.3 |
| 20260904181143 | 87 | 18 | 0.0 | 2.6 | 0.00 | 0.00 | 0.00 | 81 | 1012.2 |
| 20260904181120 | 87 | 41 | 0.0 | 2.6 | 0.00 | 0.01 | 0.00 | 80 | 1012.2 |
| 20260904180742 | 87 | 42 | 0.0 | 2.6 | 0.00 | 0.01 | 0.00 | 80 | 1012.2 |
| 20260904180642 | 0 | 25 | 0.0 | 0.0 | 0.00 | 0.00 | 0.00 | 1012.3 | |
| 20260904180337 | 0 | 0.0 | 0.0 | 0.00 | 0.00 | 0.00 | 1012.2 | ||
| 20260904180043 | 0 | 0.0 | 0.0 | 0.00 | 0.00 | 0.00 | |||
| 20260904180024 | 0 | 0.0 | 0.0 | 0.00 | 0.00 | 0.00 | |||
| 20260904175607 | 0 | 0.0 | 0.0 | 0.00 | 0.00 | 0.00 | |||
| 20260904175510 | 0 | 0.0 | 0.0 | 0.00 | 0.00 | 0.00 | |||
| 20260904175306 | 0 | 0.0 | 0.0 | 0.00 | 0.00 | 0.00 | |||
| 20260904175206 | 0 | 0.0 | 0.0 | 0.00 | 0.00 | 0.00 | |||
| 20260904175108 | 0 | 0.0 | 0.0 | 0.00 | 0.00 | 0.00 | |||
| 20260904174736 | 0 | 0.0 | 0.0 | 0.00 | 0.00 | 0.00 | 1012.1 | ||
| 20260904174535 | 0 | 0.0 | 0.0 | 0.00 | 0.00 | 0.00 | 1012.1 | ||
| 20260904174437 | 0 | 0.0 | 0.0 | 0.00 | 0.00 | 0.00 | 1012.1 | ||
| 20260904174233 | 0 | 0.0 | 0.0 | 0.00 | 0.00 | 0.00 | 1012.1 | ||
| 20260904174134 | 0 | 0.0 | 0.0 | 0.00 | 0.00 | 0.00 | 1012.1 | ||
| 20260904173933 | 0 | 0.0 | 0.0 | 0.00 | 0.00 | 0.00 | 1012.1 | ||
| 20260904173735 | 0 | 0.0 | 0.0 | 0.00 | 0.00 | 0.00 | 1012.1 | ||
| 20260904173439 | 0 | 0.0 | 0.0 | 0.00 | 0.31 | 0.00 | |||
| 20260904173334 | 0 | 0.0 | 0.0 | 0.00 | 0.31 | 0.00 | |||
| 20260904173039 | 0 | 0.0 | 0.0 | 0.00 | 0.31 | 0.00 | |||
| 20260904172942 | 0 | 0.0 | 0.0 | 0.00 | 0.31 | 0.00 | |||
| 20260904172934 | 0 | 0.0 | 0.0 | 0.00 | 0.31 | 0.00 | |||
| 20260904172607 | 0 | 0.0 | 0.0 | 0.00 | 0.31 | 0.00 | |||
| 20260904172407 | 0 | 0.0 | 0.0 | 0.00 | 0.31 | 0.00 | |||
| 20260904172209 | 0 | 0.0 | 0.0 | 0.00 | 0.31 | 0.00 | 1011.8 | ||
| 20260904171940 | 0 | 0.0 | 0.0 | 0.00 | 0.31 | 0.00 | 1011.8 | ||
| 20260904171917 | 89 | 18 | 0.0 | 1.7 | 0.00 | 0.31 | 0.00 | 77 | 1011.8 |
| 20260904171834 | 89 | 18 | 0.0 | 1.7 | 0.00 | 0.31 | 0.00 | 77 | 1011.8 |
| 20260904171535 | 89 | 18 | 0.0 | 3.5 | 0.00 | 0.31 | 0.00 | 77 | 1011.8 |
| 20260904171435 | 89 | 18 | 0.0 | 3.5 | 0.00 | 0.31 | 0.00 | 77 | 1011.8 |
| 20260904171416 | 89 | 18 | 0.0 | 3.5 | 0.00 | 0.31 | 0.00 | 77 | 1011.8 |
| 20260904171147 | 89 | 7 | 0.0 | 3.5 | 0.00 | 0.31 | 0.00 | 77 | 1011.7 |
| 20260904171141 | 89 | 18 | 0.0 | 3.5 | 0.00 | 0.31 | 0.00 | 77 | 1011.8 |
| 20260904171124 | 89 | 18 | 0.0 | 3.5 | 0.00 | 0.31 | 0.00 | 77 | 1011.7 |
| 20260904170712 | 89 | 41 | 0.0 | 3.5 | 0.00 | 0.31 | 0.00 | 77 | 1011.6 |
| 20260904170514 | 89 | 38 | 0.0 | 2.6 | 0.00 | 0.31 | 0.00 | 77 | 1011.7 |
| 20260904170408 | 89 | 39 | 0.0 | 2.6 | 0.00 | 0.31 | 0.00 | 76 | 1011.8 |
| 20260904170312 | 89 | 39 | 0.0 | 3.5 | 0.00 | 0.31 | 0.00 | 76 | 1011.8 |
| 20260904170107 | 89 | 25 | 0.0 | 4.3 | 0.00 | 0.31 | 0.00 | 76 | 1011.8 |
| 20260904170044 | 89 | 327 | 0.0 | 4.3 | 0.00 | 0.31 | 0.00 | 77 | 1011.8 |
| 20260904165842 | 89 | 327 | 0.0 | 4.3 | 0.00 | 0.31 | 0.00 | 77 | 1011.8 |
| 20260904165639 | 89 | 324 | 0.0 | 4.3 | 0.00 | 0.31 | 0.00 | 76 | 1011.7 |
| 20260904165435 | 89 | 39 | 0.0 | 4.3 | 0.00 | 0.32 | 0.00 | 75 | 1011.7 |
| 20260904165339 | 89 | 55 | 0.0 | 4.3 | 0.00 | 0.32 | 0.00 | 75 | 1011.7 |
| 20260904165209 | 89 | 42 | 0.0 | 2.6 | 0.00 | 0.32 | 0.00 | 80 | 1011.7 |
| 20260904165010 | 89 | 179 | 0.0 | 2.6 | 0.00 | 0.33 | 0.00 | 80 | 1011.7 |
| 20260904164808 | 89 | 182 | 0.0 | 2.6 | 0.00 | 0.33 | 0.00 | 78 | 1011.6 |
| 20260904164620 | 88 | 179 | 0.0 | 2.6 | 0.00 | 0.33 | 0.00 | 79 | 1011.8 |
| 20260904164608 | 89 | 179 | 0.0 | 2.6 | 0.00 | 0.33 | 0.00 | 79 | 1011.8 |
| 20260904164315 | 88 | 178 | 0.0 | 2.6 | 0.00 | 0.33 | 0.00 | 78 | 1011.7 |
| 20260904164212 | 88 | 180 | 0.0 | 2.6 | 0.00 | 0.33 | 0.00 | 79 | 1011.7 |
| 20260904164007 | 88 | 147 | 0.0 | 1.7 | 0.00 | 0.34 | 0.00 | 79 | 1011.7 |
| 20260904163813 | 88 | 152 | 0.0 | 2.6 | 0.00 | 0.38 | 0.00 | 79 | 1011.7 |
| 20260904163807 | 88 | 151 | 0.0 | 2.6 | 0.00 | 0.38 | 0.00 | 79 | 1011.8 |
| 20260904163609 | 88 | 148 | 0.0 | 2.6 | 0.00 | 0.39 | 0.00 | 79 | 1011.7 |
| 20260904163402 | 88 | 148 | 0.0 | 2.6 | 0.00 | 0.40 | 0.00 | 79 | 1011.7 |
| 20260904163317 | 88 | 113 | 0.0 | 2.6 | 0.00 | 0.41 | 0.00 | 79 | 1011.7 |
| 20260904163208 | 88 | 164 | 0.0 | 2.6 | 0.00 | 0.44 | 0.00 | 80 | 1011.6 |
| 20260904163203 | 88 | 113 | 0.0 | 2.6 | 0.00 | 0.42 | 0.00 | 81 | 1011.7 |
| 20260904162805 | 88 | 147 | 0.0 | 1.7 | 0.00 | 0.45 | 0.00 | 81 | 1011.6 |
| 20260904162603 | 87 | 145 | 0.0 | 1.7 | 0.00 | 0.46 | 0.00 | 81 | 1011.6 |
| 20260904162406 | 87 | 145 | 0.0 | 1.7 | 0.00 | 0.47 | 0.00 | 81 | 1011.5 |
| 20260904162311 | 87 | 355 | 0.0 | 1.7 | 0.00 | 0.47 | 0.00 | 80 | 1011.5 |
| 20260904162207 | 0 | 354 | 0.0 | 0.0 | 0.00 | 0.48 | 0.00 | 1011.6 | |
| 20260904162006 | 0 | 42 | 0.0 | 0.0 | 0.00 | 0.48 | 0.00 | 1011.5 | |
| 20260904161909 | 0 | 0.0 | 0.0 | 0.00 | 0.00 | 0.00 | 1011.5 | ||
| 20260904161808 | 0 | 0.0 | 0.0 | 0.00 | 0.00 | 0.00 | 1011.5 | ||
| 20260904161528 | 0 | 0.0 | 0.0 | 0.00 | 0.00 | 0.00 | |||
| 20260904161231 | 0 | 0.0 | 0.0 | 0.00 | 0.00 | 0.00 | |||
| 20260904161031 | 0 | 0.0 | 0.0 | 0.00 | 0.00 | 0.00 | |||
| 20260904160832 | 0 | 0.0 | 0.0 | 0.00 | 0.00 | 0.00 | |||
| 20260904160703 | 0 | 0.0 | 0.0 | 0.00 | 0.00 | 0.00 | |||
| 20260904160634 | 0 | 0.0 | 0.0 | 0.00 | 0.00 | 0.00 | |||
| 20260904160434 | 0 | 0.0 | 0.0 | 0.00 | 0.00 | 0.00 | |||
| 20260904160342 | 0 | 0.0 | 0.0 | 0.00 | 0.00 | 0.00 | 1011.5 | ||
| 20260904160202 | 0 | 0.0 | 0.0 | 0.00 | 0.00 | 0.00 | 1011.5 | ||
| 20260904160133 | 0 | 0.0 | 0.0 | 0.00 | 0.00 | 0.00 | 1011.5 | ||
| 20260904155807 | 0 | 0.0 | 0.0 | 0.00 | 0.00 | 0.00 | 1011.5 | ||
| 20260904155709 | 0 | 0.0 | 0.0 | 0.00 | 0.00 | 0.00 | 1011.5 | ||
| 20260904155606 | 0 | 0.0 | 0.0 | 0.00 | 0.00 | 0.00 | 1011.5 | ||
| 20260904155402 | 0 | 0.0 | 0.0 | 0.00 | 0.00 | 0.00 | 1011.4 | ||
| 20260904155205 | 0 | 0.0 | 0.0 | 0.00 | 0.00 | 0.00 | 1011.4 | ||
| 20260904154836 | 0 | 0.0 | 0.0 | 0.00 | 0.48 | 0.00 | |||
| 20260904154734 | 0 | 0.0 | 0.0 | 0.00 | 0.48 | 0.00 | |||
| 20260904154534 | 0 | 0.0 | 0.0 | 0.00 | 0.48 | 0.00 | |||
| 20260904154436 | 0 | 0.0 | 0.0 | 0.00 | 0.48 | 0.00 | |||
| 20260904154255 | 0 | 0.0 | 0.0 | 0.00 | 0.48 | 0.00 | |||
| 20260904154235 | 0 | 0.0 | 0.0 | 0.00 | 0.48 | 0.00 | |||
| 20260904154209 | 0 | 0.0 | 0.0 | 0.00 | 0.48 | 0.00 | |||
| 20260904153807 | 0 | 0.0 | 0.0 | 0.00 | 0.48 | 0.00 | 1011.2 | ||
| 20260904153607 | 0 | 0.0 | 0.0 | 0.00 | 0.48 | 0.00 | 1011.2 | ||
| 20260904153407 | 0 | 0.0 | 0.0 | 0.00 | 0.48 | 0.00 | 1011.2 | ||
| 20260904153236 | 85 | 216 | 0.0 | 1.7 | 0.00 | 0.48 | 0.00 | 85 | 1011.2 |
| 20260904153206 | 85 | 216 | 0.0 | 1.7 | 0.00 | 0.48 | 0.00 | 85 | 1011.2 |
| 20260904153158 | 85 | 216 | 0.0 | 0.0 | 0.00 | 0.48 | 0.00 | 85 | 1011.2 |
| 20260904152718 | 85 | 216 | 0.0 | 1.7 | 0.00 | 0.48 | 0.00 | 85 | 1011.1 |
| 20260904152616 | 85 | 216 | 0.0 | 1.7 | 0.00 | 0.48 | 0.00 | 85 | 1011.1 |
| 20260904152433 | 85 | 216 | 0.0 | 1.7 | 0.00 | 0.48 | 0.00 | 85 | 1011.2 |
| 20260904152314 | 85 | 216 | 0.0 | 1.7 | 0.00 | 0.48 | 0.00 | 85 | 1011.1 |
| 20260904152222 | 85 | 216 | 0.0 | 1.7 | 0.00 | 0.48 | 0.00 | 84 | 1011.0 |
| 20260904152204 | 85 | 214 | 0.0 | 1.7 | 0.00 | 0.48 | 0.00 | 84 | 1011.0 |
| 20260904152129 | 85 | 216 | 0.0 | 1.7 | 0.00 | 0.48 | 0.00 | 84 | 1011.0 |
| 20260904151715 | 85 | 214 | 0.0 | 1.7 | 0.00 | 0.48 | 0.00 | 86 | 1010.9 |
| 20260904151620 | 84 | 214 | 0.0 | 1.7 | 0.00 | 0.48 | 0.00 | 85 | 1010.9 |
| 20260904151424 | 84 | 214 | 0.0 | 1.7 | 0.00 | 0.48 | 0.00 | 85 | 1010.9 |
| 20260904151322 | 83 | 214 | 0.0 | 1.7 | 0.00 | 0.48 | 0.00 | 86 | 1010.9 |
| 20260904151317 | 83 | 214 | 0.0 | 1.7 | 0.00 | 0.48 | 0.00 | 86 | 1010.9 |
| 20260904151225 | 83 | 214 | 0.0 | 1.7 | 0.00 | 0.48 | 0.00 | 86 | 1010.9 |
| 20260904151144 | 83 | 214 | 0.0 | 1.7 | 0.00 | 0.48 | 0.00 | 86 | 1010.9 |
| 20260904150719 | 83 | 214 | 0.0 | 1.7 | 0.00 | 0.48 | 0.00 | 86 | 1010.9 |
| 20260904150516 | 83 | 217 | 0.0 | 2.6 | 0.00 | 0.48 | 0.00 | 86 | 1010.8 |
| 20260904150433 | 83 | 214 | 0.0 | 2.6 | 0.00 | 0.48 | 0.00 | 86 | 1010.9 |
| 20260904150319 | 83 | 214 | 0.0 | 2.6 | 0.00 | 0.48 | 0.00 | 86 | 1010.9 |
| 20260904150315 | 83 | 214 | 0.0 | 2.6 | 0.00 | 0.48 | 0.00 | 86 | 1010.9 |
| 20260904145931 | 83 | 214 | 0.0 | 2.6 | 0.00 | 0.48 | 0.00 | 86 | 1010.9 |
| 20260904145714 | 83 | 216 | 0.0 | 2.6 | 0.00 | 0.48 | 0.00 | 86 | 1011.0 |
| 20260904145520 | 83 | 214 | 0.0 | 2.6 | 0.00 | 0.48 | 0.00 | 86 | 1011.0 |
| 20260904145416 | 83 | 214 | 0.0 | 2.6 | 0.00 | 0.48 | 0.00 | 86 | 1010.9 |
| 20260904145318 | 83 | 214 | 0.0 | 2.6 | 0.00 | 0.48 | 0.00 | 86 | 1010.9 |
| 20260904145118 | 83 | 214 | 0.0 | 2.6 | 0.00 | 0.48 | 0.00 | 86 | 1011.0 |
| 20260904144935 | 82 | 214 | 0.0 | 1.7 | 0.00 | 0.48 | 0.00 | 88 | 1010.9 |
| 20260904144918 | 83 | 214 | 0.0 | 2.6 | 0.00 | 0.48 | 0.00 | 86 | 1011.0 |
| 20260904144515 | 82 | 213 | 0.0 | 0.9 | 0.00 | 0.48 | 0.00 | 88 | 1010.9 |
| 20260904144416 | 82 | 213 | 0.0 | 0.0 | 0.00 | 0.48 | 0.00 | 88 | 1010.9 |
| 20260904144319 | 82 | 213 | 0.0 | 0.0 | 0.00 | 0.48 | 0.00 | 88 | 1011.0 |
| 20260904144117 | 82 | 213 | 0.0 | 0.9 | 0.00 | 0.48 | 0.00 | 89 | 1011.0 |
| 20260904143918 | 81 | 216 | 0.0 | 0.9 | 0.00 | 0.48 | 0.00 | 89 | 1010.9 |
| 20260904143716 | 81 | 216 | 0.0 | 0.9 | 0.00 | 0.48 | 0.00 | 89 | 1011.0 |
| 20260904143555 | 81 | 216 | 0.0 | 2.6 | 0.00 | 0.48 | 0.00 | 89 | 1011.0 |
| 20260904143515 | 81 | 214 | 0.0 | 0.9 | 0.00 | 0.48 | 0.00 | 89 | 1010.9 |
| 20260904143438 | 81 | 214 | 0.0 | 0.9 | 0.00 | 0.48 | 0.00 | 89 | 1011.0 |
| 20260904143116 | 80 | 216 | 0.0 | 3.5 | 0.00 | 0.48 | 0.00 | 90 | 1010.9 |
| 20260904142931 | 80 | 214 | 0.0 | 3.5 | 0.00 | 0.48 | 0.00 | 90 | 1011.0 |
| 20260904142721 | 80 | 216 | 0.0 | 3.5 | 0.00 | 0.48 | 0.00 | 90 | 1010.9 |
| 20260904142517 | 80 | 216 | 0.0 | 3.5 | 0.00 | 0.48 | 0.00 | 90 | 1011.0 |
| 20260904142425 | 80 | 216 | 0.0 | 3.5 | 0.00 | 0.48 | 0.00 | 90 | 1011.0 |
| 20260904142318 | 80 | 216 | 0.0 | 3.5 | 0.00 | 0.48 | 0.00 | 90 | 1011.0 |
| 20260904142200 | 80 | 214 | 0.0 | 2.6 | 0.00 | 0.48 | 0.00 | 90 | 1010.8 |
| 20260904142152 | 80 | 214 | 0.0 | 2.6 | 0.00 | 0.48 | 0.00 | 90 | 1011.0 |
| 20260904142128 | 80 | 214 | 0.0 | 2.6 | 0.00 | 0.48 | 0.00 | 90 | 1010.9 |
| 20260904141718 | 80 | 216 | 0.0 | 0.9 | 0.00 | 0.48 | 0.00 | 92 | 1011.0 |
| 20260904141517 | 80 | 213 | 0.0 | 0.9 | 0.00 | 0.48 | 0.00 | 92 | 1011.0 |
| 20260904141412 | 80 | 213 | 0.0 | 0.9 | 0.00 | 0.48 | 0.00 | 92 | 1010.8 |
| 20260904141321 | 0 | 0.0 | 0.0 | 0.00 | 0.00 | 0.00 | 1010.9 | ||
| 20260904141308 | 80 | 214 | 0.0 | 0.9 | 0.00 | 0.48 | 0.00 | 92 | 1010.9 |
| 20260904141145 | 0 | 0.0 | 0.0 | 0.00 | 0.00 | 0.00 | 1010.9 | ||
| 20260904141137 | 0 | 214 | 0.0 | 0.0 | 0.00 | 0.48 | 0.00 | 1010.8 | |
| 20260904140604 | 0 | 0.0 | 0.0 | 0.00 | 0.00 | 0.00 | |||
| 20260904140402 | 0 | 0.0 | 0.0 | 0.00 | 0.00 | 0.00 | |||
| 20260904140306 | 0 | 0.0 | 0.0 | 0.00 | 0.00 | 0.00 | |||
| 20260904140207 | 0 | 0.0 | 0.0 | 0.00 | 0.00 | 0.00 | |||
| 20260904140041 | 0 | 0.0 | 0.0 | 0.00 | 0.00 | 0.00 | |||
| 20260904140019 | 0 | 0.0 | 0.0 | 0.00 | 0.00 | 0.00 | |||
| 20260904135639 | 0 | 0.0 | 0.0 | 0.00 | 0.00 | 0.00 | |||
| 20260904135435 | 0 | 0.0 | 0.0 | 0.00 | 0.00 | 0.00 | 1011.0 | ||
| 20260904135305 | 0 | 0.0 | 0.0 | 0.00 | 0.00 | 0.00 | 1011.0 | ||
| 20260904135135 | 0 | 0.0 | 0.0 | 0.00 | 0.00 | 0.00 | 1011.0 | ||
| 20260904134934 | 0 | 0.0 | 0.0 | 0.00 | 0.00 | 0.00 | 1011.0 | ||
| 20260904134802 | 0 | 0.0 | 0.0 | 0.00 | 0.00 | 0.00 | 1011.0 | ||
| 20260904134707 | 0 | 0.0 | 0.0 | 0.00 | 0.00 | 0.00 | 1011.0 | ||
| 20260904134505 | 0 | 0.0 | 0.0 | 0.00 | 0.00 | 0.00 | 1010.9 | ||
| 20260904134308 | 0 | 0.0 | 0.0 | 0.00 | 0.00 | 0.00 | 1010.8 | ||
| 20260904134134 | 0 | 0.0 | 0.0 | 0.00 | 0.48 | 0.00 | |||
| 20260904133836 | 0 | 0.0 | 0.0 | 0.00 | 0.48 | 0.00 | |||
| 20260904133735 | 0 | 0.0 | 0.0 | 0.00 | 0.48 | 0.00 | |||
| 20260904133636 | 0 | 0.0 | 0.0 | 0.00 | 0.48 | 0.00 | |||
| 20260904133434 | 0 | 0.0 | 0.0 | 0.00 | 0.48 | 0.00 | |||
| 20260904133211 | 0 | 0.0 | 0.0 | 0.00 | 0.48 | 0.00 | |||
| 20260904133106 | 0 | 0.0 | 0.0 | 0.00 | 0.48 | 0.00 | 1010.7 | ||
| 20260904132905 | 0 | 0.0 | 0.0 | 0.00 | 0.48 | 0.00 | 1010.7 | ||
| 20260904132730 | 0 | 0.0 | 0.0 | 0.00 | 0.48 | 0.00 | 1010.7 | ||
| 20260904132535 | 0 | 0.0 | 0.0 | 0.00 | 0.48 | 0.00 | 1010.7 | ||
| 20260904132336 | 75 | 175 | 0.0 | 0.0 | 0.00 | 0.48 | 0.00 | 98 | 1010.7 |
| 20260904132204 | 75 | 175 | 0.0 | 0.0 | 0.00 | 0.48 | 0.00 | 98 | 1010.7 |
| 20260904132137 | 75 | 175 | 0.0 | 0.9 | 0.00 | 0.48 | 0.00 | 98 | 1010.7 |
| 20260904131923 | 75 | 175 | 0.0 | 0.9 | 0.00 | 0.48 | 0.00 | 98 | 1010.8 |
| 20260904131723 | 75 | 175 | 0.0 | 0.9 | 0.00 | 0.48 | 0.00 | 98 | 1010.8 |
| 20260904131705 | 75 | 175 | 0.0 | 0.9 | 0.00 | 0.48 | 0.00 | 98 | 1010.9 |
| 20260904131622 | 75 | 175 | 0.0 | 0.9 | 0.00 | 0.48 | 0.00 | 98 | 1010.9 |
| 20260904131422 | 75 | 175 | 0.0 | 0.9 | 0.00 | 0.48 | 0.00 | 98 | 1010.8 |
| 20260904131203 | 75 | 178 | 0.0 | 0.9 | 0.00 | 0.48 | 0.00 | 98 | 1010.8 |
| 20260904131123 | 75 | 141 | 0.0 | 0.0 | 0.00 | 0.48 | 0.00 | 98 | 1010.8 |
| 20260904130923 | 75 | 141 | 0.0 | 0.0 | 0.00 | 0.48 | 0.00 | 98 | 1010.8 |
| 20260904130725 | 75 | 140 | 0.0 | 0.0 | 0.00 | 0.48 | 0.00 | 98 | 1010.7 |
| 20260904130702 | 75 | 141 | 0.0 | 0.0 | 0.00 | 0.48 | 0.00 | 98 | 1010.7 |
| 20260904130523 | 74 | 141 | 0.0 | 0.0 | 0.00 | 0.48 | 0.00 | 98 | 1010.8 |
| 20260904130322 | 0 | 140 | 0.0 | 0.0 | 0.00 | 0.48 | 0.00 | 1010.9 | |
| 20260904130210 | 0 | 141 | 0.0 | 0.0 | 0.00 | 0.48 | 0.00 | 1010.7 | |
| 20260904130202 | 0 | 141 | 0.0 | 0.0 | 0.00 | 0.48 | 0.00 | 1010.9 | |
| 20260904130001 | 0 | 141 | 0.0 | 0.0 | 0.00 | 0.48 | 0.00 | 1010.5 | |
| 20260904125709 | 0 | 0.0 | 0.0 | 0.00 | 0.00 | 0.00 | 1010.7 | ||
| 20260904125331 | 0 | 0.0 | 0.0 | 0.00 | 0.48 | 0.00 | |||
| 20260904125306 | 0 | 0.0 | 0.0 | 0.00 | 0.48 | 0.00 | |||
| 20260904125031 | 0 | 0.0 | 0.0 | 0.00 | 0.48 | 0.00 | |||
| 20260904124805 | 0 | 0.0 | 0.0 | 0.00 | 0.48 | 0.00 | |||
| 20260904124604 | 0 | 0.0 | 0.0 | 0.00 | 0.48 | 0.00 | |||
| 20260904124411 | 0 | 0.0 | 0.0 | 0.00 | 0.48 | 0.00 | |||
| 20260904124233 | 0 | 0.0 | 0.0 | 0.00 | 0.48 | 0.00 | 1010.4 | ||
| 20260904124003 | 0 | 0.0 | 0.0 | 0.00 | 0.48 | 0.00 | 1010.4 | ||
| 20260904123849 | 72 | 127 | 0.0 | 0.0 | 0.00 | 0.48 | 0.00 | 97 | 1010.4 |
| 20260904123746 | 72 | 127 | 0.0 | 0.0 | 0.00 | 0.48 | 0.00 | 97 | 1010.4 |
| 20260904123531 | 72 | 127 | 0.0 | 0.0 | 0.00 | 0.48 | 0.00 | 97 | 1010.4 |
| 20260904123320 | 72 | 127 | 0.0 | 0.0 | 0.00 | 0.48 | 0.00 | 97 | 1010.4 |
| 20260904123230 | 72 | 127 | 0.0 | 0.0 | 0.00 | 0.48 | 0.00 | 97 | 1010.3 |
| 20260904123116 | 72 | 127 | 0.0 | 0.0 | 0.00 | 0.48 | 0.00 | 97 | 1010.4 |
| 20260904122904 | 72 | 127 | 0.0 | 0.0 | 0.00 | 0.48 | 0.00 | 97 | 1010.3 |
| 20260904122800 | 72 | 125 | 0.0 | 0.0 | 0.00 | 0.48 | 0.00 | 97 | 1010.2 |
| 20260904122731 | 72 | 125 | 0.0 | 0.0 | 0.00 | 0.48 | 0.00 | 97 | 1010.3 |
| 20260904122504 | 72 | 125 | 0.0 | 0.0 | 0.00 | 0.48 | 0.00 | 97 | 1010.2 |
| 20260904122404 | 72 | 125 | 0.0 | 0.0 | 0.00 | 0.48 | 0.00 | 97 | 1010.3 |
| 20260904122217 | 72 | 127 | 0.0 | 0.0 | 0.00 | 0.48 | 0.00 | 97 | 1010.3 |
| 20260904122106 | 72 | 127 | 0.0 | 0.0 | 0.00 | 0.48 | 0.00 | 97 | 1010.3 |
| 20260904121905 | 72 | 127 | 0.0 | 0.0 | 0.00 | 0.48 | 0.00 | 97 | 1010.1 |
| 20260904121708 | 72 | 127 | 0.0 | 0.0 | 0.00 | 0.48 | 0.00 | 97 | 1010.2 |
| 20260904121613 | 72 | 125 | 0.0 | 0.0 | 0.00 | 0.48 | 0.00 | 97 | 1010.1 |
| 20260904121518 | 72 | 127 | 0.0 | 0.0 | 0.00 | 0.48 | 0.00 | 97 | 1010.2 |
| 20260904121447 | 72 | 127 | 0.0 | 0.0 | 0.00 | 0.48 | 0.00 | 97 | 1010.2 |
| 20260904121107 | 72 | 127 | 0.0 | 0.0 | 0.00 | 0.48 | 0.00 | 97 | 1010.0 |
| 20260904120902 | 72 | 127 | 0.0 | 0.0 | 0.00 | 0.48 | 0.00 | 97 | 1010.1 |
| 20260904120703 | 72 | 127 | 0.0 | 0.0 | 0.00 | 0.48 | 0.00 | 97 | 1010.0 |
| 20260904120604 | 72 | 127 | 0.0 | 0.0 | 0.00 | 0.48 | 0.00 | 97 | 1010.1 |
| 20260904120440 | 72 | 127 | 0.0 | 0.0 | 0.00 | 0.48 | 0.00 | 97 | 1010.1 |
| 20260904120154 | 72 | 125 | 0.0 | 0.0 | 0.00 | 0.48 | 0.00 | 97 | 1010.1 |
| 20260904115855 | 73 | 127 | 0.0 | 0.0 | 0.00 | 0.48 | 0.00 | 97 | 1010.0 |
| 20260904115708 | 73 | 127 | 0.0 | 0.0 | 0.00 | 0.48 | 0.00 | 97 | 1009.8 |
| 20260904115657 | 73 | 127 | 0.0 | 0.0 | 0.00 | 0.48 | 0.00 | 97 | 1009.8 |
| 20260904115513 | 73 | 127 | 0.0 | 0.0 | 0.00 | 0.48 | 0.00 | 97 | 1009.9 |
| 20260904115502 | 73 | 127 | 0.0 | 0.0 | 0.00 | 0.48 | 0.00 | 97 | 1009.9 |
| 20260904115429 | 73 | 127 | 0.0 | 0.0 | 0.00 | 0.48 | 0.00 | 97 | 1009.9 |
| 20260904115127 | 73 | 127 | 0.0 | 0.0 | 0.00 | 0.48 | 0.00 | 97 | 1010.0 |
| 20260904114834 | 73 | 157 | 0.0 | 0.0 | 0.00 | 0.48 | 0.00 | 97 | 1010.0 |
| 20260904114739 | 73 | 158 | 0.0 | 0.0 | 0.00 | 0.48 | 0.00 | 97 | 1010.0 |
| 20260904114706 | 73 | 158 | 0.0 | 0.0 | 0.00 | 0.48 | 0.00 | 97 | 1010.0 |
| 20260904114426 | 73 | 159 | 0.0 | 0.0 | 0.00 | 0.48 | 0.00 | 97 | 1009.8 |
| 20260904114227 | 73 | 158 | 0.0 | 0.0 | 0.00 | 0.48 | 0.00 | 97 | 1009.9 |
| 20260904114207 | 73 | 158 | 0.0 | 0.0 | 0.00 | 0.48 | 0.00 | 97 | 1009.8 |
| 20260904114024 | 73 | 158 | 0.0 | 0.0 | 0.00 | 0.48 | 0.00 | 97 | 1009.7 |
| 20260904113820 | 73 | 158 | 0.0 | 0.0 | 0.00 | 0.48 | 0.00 | 97 | 1009.8 |
| 20260904113709 | 73 | 157 | 0.0 | 0.0 | 0.00 | 0.48 | 0.00 | 97 | 1009.7 |
| 20260904113619 | 73 | 157 | 0.0 | 0.0 | 0.00 | 0.48 | 0.00 | 97 | 1009.7 |
| 20260904113507 | 73 | 158 | 0.0 | 0.0 | 0.00 | 0.48 | 0.00 | 97 | 1009.9 |
| 20260904113454 | 73 | 158 | 0.0 | 0.0 | 0.00 | 0.48 | 0.00 | 97 | 1009.8 |
| 20260904113427 | 73 | 159 | 0.0 | 0.0 | 0.00 | 0.48 | 0.00 | 97 | 1009.9 |
| 20260904113015 | 73 | 158 | 0.0 | 0.0 | 0.00 | 0.48 | 0.00 | 97 | 1010.0 |
| 20260904112815 | 73 | 158 | 0.0 | 0.0 | 0.00 | 0.48 | 0.00 | 97 | 1009.9 |
| 20260904112726 | 73 | 158 | 0.0 | 0.0 | 0.00 | 0.50 | 0.00 | 97 | 1009.7 |
| 20260904112707 | 73 | 158 | 0.0 | 0.0 | 0.00 | 0.48 | 0.00 | 97 | 1009.8 |
| 20260904112606 | 73 | 158 | 0.0 | 0.0 | 0.00 | 0.49 | 0.00 | 97 | 1009.7 |
| 20260904112536 | 73 | 158 | 0.0 | 0.0 | 0.00 | 0.55 | 0.00 | 97 | 1009.7 |
| 20260904112203 | 73 | 158 | 0.0 | 0.0 | 0.00 | 0.55 | 0.00 | 97 | 1009.7 |
| 20260904112005 | 73 | 158 | 0.0 | 0.0 | 0.00 | 0.55 | 0.00 | 97 | 1009.8 |
| 20260904111807 | 73 | 158 | 0.0 | 0.0 | 0.00 | 0.55 | 0.00 | 96 | 1009.9 |
| 20260904111707 | 73 | 157 | 0.0 | 0.0 | 0.00 | 0.55 | 0.00 | 97 | 1009.9 |
| 20260904111607 | 73 | 158 | 0.0 | 0.0 | 0.00 | 0.55 | 0.00 | 96 | 1009.9 |
| 20260904111452 | 73 | 158 | 0.0 | 0.0 | 0.00 | 0.55 | 0.00 | 96 | 1009.8 |
| 20260904111448 | 73 | 158 | 0.0 | 0.0 | 0.00 | 0.55 | 0.00 | 96 | 1009.8 |
| 20260904111442 | 73 | 158 | 0.0 | 0.0 | 0.00 | 0.55 | 0.00 | 96 | 1009.8 |
| 20260904111034 | 74 | 158 | 0.0 | 0.0 | 0.00 | 0.55 | 0.00 | 97 | 1009.8 |
| 20260904110735 | 74 | 158 | 0.0 | 0.0 | 0.00 | 0.55 | 0.00 | 97 | 1009.9 |
| 20260904110707 | 74 | 158 | 0.0 | 0.0 | 0.00 | 0.55 | 0.00 | 97 | 1009.8 |
| 20260904110526 | 74 | 158 | 0.0 | 0.0 | 0.00 | 0.55 | 0.00 | 97 | 1009.8 |
| 20260904110449 | 74 | 158 | 0.0 | 0.0 | 0.00 | 0.55 | 0.00 | 97 | 1009.7 |
| 20260904110432 | 74 | 158 | 0.0 | 0.0 | 0.00 | 0.55 | 0.00 | 97 | 1009.8 |
| 20260904110123 | 74 | 158 | 0.0 | 0.0 | 0.00 | 0.55 | 0.00 | 97 | 1009.7 |
| 20260904105922 | 74 | 158 | 0.0 | 0.0 | 0.00 | 0.55 | 0.00 | 97 | 1009.7 |
| 20260904105827 | 74 | 157 | 0.0 | 0.0 | 0.00 | 0.55 | 0.00 | 97 | 1009.7 |
| 20260904105705 | 74 | 158 | 0.0 | 0.0 | 0.00 | 0.55 | 0.00 | 97 | 1009.7 |
| 20260904105522 | 74 | 158 | 0.0 | 0.0 | 0.00 | 0.55 | 0.00 | 97 | 1009.8 |
| 20260904105321 | 74 | 158 | 0.0 | 0.0 | 0.00 | 0.55 | 0.00 | 97 | 1009.7 |
| 20260904105201 | 74 | 158 | 0.0 | 0.0 | 0.00 | 0.55 | 0.00 | 97 | 1009.7 |
| 20260904105126 | 73 | 158 | 0.0 | 0.0 | 0.00 | 0.55 | 0.00 | 97 | 1009.8 |
| 20260904105118 | 74 | 159 | 0.0 | 0.0 | 0.00 | 0.55 | 0.00 | 97 | 1009.7 |
| 20260904104716 | 73 | 158 | 0.0 | 0.0 | 0.00 | 0.55 | 0.00 | 97 | 1009.8 |
| 20260904104701 | 73 | 157 | 0.0 | 0.0 | 0.00 | 0.55 | 0.00 | 97 | 1009.7 |
| 20260904104514 | 73 | 158 | 0.0 | 0.0 | 0.00 | 0.55 | 0.00 | 97 | 1009.7 |
| 20260904104313 | 73 | 158 | 0.0 | 0.0 | 0.00 | 0.55 | 0.00 | 97 | 1009.7 |
| 20260904104203 | 73 | 157 | 0.0 | 0.0 | 0.00 | 0.55 | 0.00 | 97 | 1009.7 |
| 20260904104109 | 72 | 159 | 0.0 | 0.0 | 0.00 | 0.55 | 0.00 | 97 | 1009.7 |
| 20260904103909 | 72 | 158 | 0.0 | 0.0 | 0.00 | 0.55 | 0.00 | 96 | 1009.7 |
| 20260904103714 | 72 | 157 | 0.0 | 0.0 | 0.00 | 0.55 | 0.00 | 97 | 1009.8 |
| 20260904103701 | 72 | 157 | 0.0 | 0.0 | 0.00 | 0.55 | 0.00 | 96 | 1009.8 |
| 20260904103305 | 73 | 158 | 0.0 | 0.0 | 0.00 | 0.55 | 0.00 | 97 | 1009.8 |
| 20260904103202 | 73 | 158 | 0.0 | 0.0 | 0.00 | 0.55 | 0.00 | 97 | 1009.7 |
| 20260904103106 | 73 | 157 | 0.0 | 0.0 | 0.00 | 0.55 | 0.00 | 97 | 1009.8 |
| 20260904102855 | 73 | 157 | 0.0 | 0.0 | 0.00 | 0.55 | 0.00 | 97 | 1009.8 |
| 20260904102632 | 73 | 157 | 0.0 | 0.0 | 0.00 | 0.55 | 0.00 | 96 | 1009.9 |
| 20260904102431 | 73 | 157 | 0.0 | 0.0 | 0.00 | 0.55 | 0.00 | 96 | 1009.9 |
| 20260904102246 | 73 | 157 | 0.0 | 0.0 | 0.00 | 0.55 | 0.00 | 97 | 1009.8 |
| 20260904102231 | 73 | 157 | 0.0 | 0.0 | 0.00 | 0.55 | 0.00 | 97 | 1009.9 |
| 20260904102144 | 73 | 157 | 0.0 | 0.0 | 0.00 | 0.55 | 0.00 | 97 | 1009.8 |
| 20260904101921 | 73 | 157 | 0.0 | 0.0 | 0.00 | 0.55 | 0.00 | 96 | 1009.8 |
| 20260904101911 | 73 | 157 | 0.0 | 0.0 | 0.00 | 0.55 | 0.00 | 97 | 1009.8 |
| 20260904101620 | 73 | 155 | 0.0 | 0.0 | 0.00 | 0.55 | 0.00 | 96 | 1009.8 |
| 20260904101434 | 73 | 157 | 0.0 | 0.0 | 0.00 | 0.55 | 0.00 | 96 | 1009.6 |
| 20260904101426 | 73 | 157 | 0.0 | 0.0 | 0.00 | 0.55 | 0.00 | 96 | 1009.7 |
| 20260904101358 | 73 | 157 | 0.0 | 0.0 | 0.00 | 0.55 | 0.00 | 96 | 1009.7 |
| 20260904101120 | 73 | 157 | 0.0 | 0.0 | 0.00 | 0.55 | 0.00 | 96 | 1009.6 |
| 20260904100816 | 73 | 158 | 0.0 | 0.0 | 0.00 | 0.55 | 0.00 | 96 | 1009.6 |
| 20260904100636 | 73 | 158 | 0.0 | 0.0 | 0.00 | 0.55 | 0.00 | 96 | 1009.7 |
| 20260904100618 | 73 | 157 | 0.0 | 0.0 | 0.00 | 0.55 | 0.00 | 96 | 1009.6 |
| 20260904100428 | 73 | 157 | 0.0 | 0.0 | 0.00 | 0.55 | 0.00 | 97 | 1009.6 |
| 20260904100421 | 73 | 158 | 0.0 | 0.0 | 0.00 | 0.55 | 0.00 | 96 | 1009.6 |
| 20260904100357 | 73 | 157 | 0.0 | 0.0 | 0.00 | 0.55 | 0.00 | 97 | 1009.6 |
| 20260904100116 | 73 | 157 | 0.0 | 0.0 | 0.00 | 0.55 | 0.00 | 97 | 1009.6 |
| 20260904095749 | 73 | 158 | 0.0 | 0.0 | 0.00 | 0.55 | 0.00 | 97 | 1009.6 |
| 20260904095644 | 73 | 157 | 0.0 | 0.0 | 0.00 | 0.55 | 0.00 | 96 | 1009.6 |
| 20260904095629 | 73 | 158 | 0.0 | 0.0 | 0.00 | 0.55 | 0.00 | 96 | 1009.6 |
| 20260904095425 | 73 | 157 | 0.0 | 0.0 | 0.00 | 0.55 | 0.00 | 96 | 1009.6 |
| 20260904095413 | 73 | 155 | 0.0 | 0.0 | 0.00 | 0.55 | 0.00 | 97 | 1009.6 |
| 20260904095345 | 73 | 157 | 0.0 | 0.0 | 0.00 | 0.55 | 0.00 | 96 | 1009.6 |
| 20260904094941 | 73 | 158 | 0.0 | 0.0 | 0.00 | 0.55 | 0.00 | 96 | 1009.7 |
| 20260904094738 | 73 | 158 | 0.0 | 0.0 | 0.00 | 0.55 | 0.00 | 96 | 1009.7 |
| 20260904094642 | 73 | 158 | 0.0 | 0.0 | 0.00 | 0.55 | 0.00 | 96 | 1009.7 |
| 20260904094629 | 73 | 157 | 0.0 | 0.0 | 0.00 | 0.55 | 0.00 | 96 | 1009.7 |
| 20260904094426 | 73 | 157 | 0.0 | 0.0 | 0.00 | 0.55 | 0.00 | 96 | 1009.7 |
| 20260904094411 | 73 | 157 | 0.0 | 0.0 | 0.00 | 0.55 | 0.00 | 96 | 1009.7 |
| 20260904093939 | 73 | 157 | 0.0 | 0.0 | 0.00 | 0.55 | 0.00 | 96 | 1009.6 |
| 20260904093741 | 73 | 157 | 0.0 | 0.0 | 0.00 | 0.55 | 0.00 | 96 | 1009.5 |
| 20260904093630 | 73 | 158 | 0.0 | 0.0 | 0.00 | 0.55 | 0.00 | 96 | 1009.5 |
| 20260904093533 | 73 | 158 | 0.0 | 0.0 | 0.00 | 0.55 | 0.00 | 96 | 1009.5 |
| 20260904093436 | 73 | 159 | 0.0 | 0.0 | 0.00 | 0.55 | 0.00 | 96 | 1009.4 |
| 20260904093421 | 73 | 157 | 0.0 | 0.0 | 0.00 | 0.55 | 0.00 | 96 | 1009.5 |
| 20260904093347 | 73 | 159 | 0.0 | 0.0 | 0.00 | 0.55 | 0.00 | 96 | 1009.4 |
| 20260904092932 | 73 | 157 | 0.0 | 0.0 | 0.00 | 0.55 | 0.00 | 96 | 1009.5 |
| 20260904092833 | 73 | 157 | 0.0 | 0.0 | 0.00 | 0.55 | 0.00 | 96 | 1009.5 |
| 20260904092630 | 73 | 155 | 0.0 | 0.0 | 0.00 | 0.55 | 0.00 | 96 | 1009.5 |
| 20260904092541 | 73 | 158 | 0.0 | 0.0 | 0.00 | 0.55 | 0.00 | 96 | 1009.4 |
| 20260904092534 | 73 | 157 | 0.0 | 0.0 | 0.00 | 0.55 | 0.00 | 96 | 1009.5 |
| 20260904092437 | 73 | 155 | 0.0 | 0.0 | 0.00 | 0.55 | 0.00 | 96 | 1009.4 |
| 20260904092346 | 73 | 155 | 0.0 | 0.0 | 0.00 | 0.55 | 0.00 | 96 | 1009.4 |
| 20260904091933 | 73 | 157 | 0.0 | 0.0 | 0.00 | 0.55 | 0.00 | 96 | 1009.4 |
| 20260904091716 | 73 | 157 | 0.0 | 0.0 | 0.00 | 0.55 | 0.00 | 96 | 1009.4 |
| 20260904091628 | 73 | 157 | 0.0 | 0.0 | 0.00 | 0.55 | 0.00 | 96 | 1009.5 |
| 20260904091528 | 73 | 158 | 0.0 | 0.0 | 0.00 | 0.55 | 0.00 | 96 | 1009.5 |
| 20260904091524 | 73 | 157 | 0.0 | 0.0 | 0.00 | 0.55 | 0.00 | 96 | 1009.4 |
| 20260904091415 | 73 | 157 | 0.0 | 0.0 | 0.00 | 0.55 | 0.00 | 96 | 1009.5 |
| 20260904091114 | 73 | 157 | 0.0 | 0.0 | 0.00 | 0.55 | 0.00 | 96 | 1009.5 |
| 20260904091015 | 73 | 157 | 0.0 | 0.0 | 0.00 | 0.55 | 0.00 | 96 | 1009.5 |
| 20260904090714 | 73 | 158 | 0.0 | 0.0 | 0.00 | 0.55 | 0.00 | 96 | 1009.4 |
| 20260904090629 | 73 | 158 | 0.0 | 0.0 | 0.00 | 0.55 | 0.00 | 96 | 1009.4 |
| 20260904090513 | 73 | 157 | 0.0 | 0.0 | 0.00 | 0.55 | 0.00 | 96 | 1009.4 |
| 20260904090315 | 73 | 159 | 0.0 | 0.0 | 0.00 | 0.55 | 0.00 | 96 | 1009.4 |
| 20260904090115 | 73 | 157 | 0.0 | 0.0 | 0.00 | 0.55 | 0.00 | 96 | 1009.4 |
| 20260904090012 | 73 | 157 | 0.0 | 0.0 | 0.00 | 0.55 | 0.00 | 96 | 1009.4 |
| 20260904085713 | 73 | 158 | 0.0 | 0.0 | 0.00 | 0.55 | 0.00 | 96 | 1009.4 |
| 20260904085624 | 73 | 157 | 0.0 | 0.0 | 0.00 | 0.55 | 0.00 | 96 | 1009.3 |
| 20260904085615 | 73 | 157 | 0.0 | 0.0 | 0.00 | 0.55 | 0.00 | 96 | 1009.4 |
| 20260904085315 | 73 | 157 | 0.0 | 0.0 | 0.00 | 0.55 | 0.00 | 96 | 1009.4 |
| 20260904085215 | 74 | 155 | 0.0 | 0.0 | 0.00 | 0.55 | 0.00 | 96 | 1009.4 |
| 20260904085114 | 74 | 155 | 0.0 | 0.0 | 0.00 | 0.55 | 0.00 | 96 | 1009.4 |
| 20260904084924 | 73 | 158 | 0.0 | 0.0 | 0.00 | 0.55 | 0.00 | 96 | 1009.4 |
| 20260904084717 | 73 | 158 | 0.0 | 0.0 | 0.00 | 0.55 | 0.00 | 95 | 1009.4 |
| 20260904084613 | 74 | 157 | 0.0 | 0.0 | 0.00 | 0.55 | 0.00 | 95 | 1009.3 |
| 20260904084530 | 74 | 158 | 0.0 | 0.0 | 0.00 | 0.55 | 0.00 | 95 | 1009.3 |
| 20260904084316 | 74 | 157 | 0.0 | 0.0 | 0.00 | 0.55 | 0.00 | 95 | 1009.3 |
| 20260904084117 | 74 | 158 | 0.0 | 0.0 | 0.00 | 0.55 | 0.00 | 95 | 1009.3 |
| 20260904084022 | 74 | 157 | 0.0 | 0.0 | 0.00 | 0.55 | 0.00 | 95 | 1009.2 |
| 20260904083822 | 74 | 157 | 0.0 | 0.0 | 0.00 | 0.55 | 0.00 | 96 | 1009.2 |
| 20260904083615 | 74 | 155 | 0.0 | 0.0 | 0.00 | 0.55 | 0.00 | 96 | 1009.3 |
| 20260904083517 | 74 | 157 | 0.0 | 0.0 | 0.00 | 0.55 | 0.00 | 96 | 1009.2 |
| 20260904083316 | 74 | 158 | 0.0 | 0.0 | 0.00 | 0.55 | 0.00 | 96 | 1009.3 |
| 20260904083118 | 74 | 158 | 0.0 | 0.0 | 0.00 | 0.55 | 0.00 | 96 | 1009.2 |
| 20260904082921 | 74 | 157 | 0.0 | 0.0 | 0.00 | 0.55 | 0.00 | 95 | 1009.2 |
| 20260904082721 | 74 | 157 | 0.0 | 0.0 | 0.00 | 0.55 | 0.00 | 95 | 1009.2 |
| 20260904082627 | 74 | 158 | 0.0 | 0.0 | 0.00 | 0.55 | 0.00 | 95 | 1009.2 |
| 20260904082618 | 74 | 157 | 0.0 | 0.0 | 0.00 | 0.55 | 0.00 | 95 | 1009.2 |
| 20260904082418 | 74 | 158 | 0.0 | 0.0 | 0.00 | 0.55 | 0.00 | 95 | 1009.3 |
| 20260904082120 | 74 | 158 | 0.0 | 0.0 | 0.00 | 0.55 | 0.00 | 95 | 1009.2 |
| 20260904081918 | 74 | 157 | 0.0 | 0.0 | 0.00 | 0.55 | 0.00 | 95 | 1009.2 |
| 20260904081721 | 74 | 157 | 0.0 | 0.0 | 0.00 | 0.55 | 0.00 | 95 | 1009.2 |
| 20260904081617 | 74 | 158 | 0.0 | 0.0 | 0.00 | 0.55 | 0.00 | 95 | 1009.1 |
| 20260904081525 | 74 | 158 | 0.0 | 0.0 | 0.00 | 0.55 | 0.00 | 95 | 1009.1 |
| 20260904081318 | 74 | 155 | 0.0 | 0.0 | 0.00 | 0.55 | 0.00 | 95 | 1009.2 |
| 20260904081118 | 74 | 157 | 0.0 | 0.0 | 0.00 | 0.55 | 0.00 | 95 | 1009.2 |
| 20260904081036 | 74 | 157 | 0.0 | 0.0 | 0.00 | 0.55 | 0.00 | 95 | 1009.1 |
| 20260904080722 | 74 | 157 | 0.0 | 0.0 | 0.00 | 0.55 | 0.00 | 95 | 1009.1 |
| 20260904080618 | 74 | 157 | 0.0 | 0.0 | 0.00 | 0.55 | 0.00 | 95 | 1009.2 |
| 20260904080517 | 74 | 157 | 0.0 | 0.0 | 0.00 | 0.55 | 0.00 | 95 | 1009.1 |
| 20260904080318 | 74 | 158 | 0.0 | 0.0 | 0.00 | 0.55 | 0.00 | 95 | 1009.1 |
| 20260904080119 | 74 | 157 | 0.0 | 0.0 | 0.00 | 0.55 | 0.00 | 95 | 1009.1 |
| 20260904080025 | 74 | 157 | 0.0 | 0.0 | 0.00 | 0.55 | 0.00 | 95 | 1009.1 |
| 20260904075716 | 74 | 157 | 0.0 | 0.0 | 0.00 | 0.55 | 0.00 | 95 | 1009.1 |
| 20260904075627 | 75 | 157 | 0.0 | 0.0 | 0.00 | 0.55 | 0.00 | 95 | 1009.1 |
| 20260904075614 | 74 | 157 | 0.0 | 0.0 | 0.00 | 0.55 | 0.00 | 95 | 1009.1 |
| 20260904075318 | 75 | 157 | 0.0 | 0.0 | 0.00 | 0.55 | 0.00 | 95 | 1009.2 |
| 20260904075122 | 75 | 158 | 0.0 | 0.0 | 0.00 | 0.55 | 0.00 | 95 | 1009.2 |
| 20260904074917 | 75 | 159 | 0.0 | 0.0 | 0.00 | 0.55 | 0.00 | 94 | 1009.1 |
| 20260904074717 | 75 | 158 | 0.0 | 0.0 | 0.00 | 0.55 | 0.00 | 94 | 1009.2 |
| 20260904074619 | 75 | 158 | 0.0 | 0.0 | 0.00 | 0.55 | 0.00 | 94 | 1009.2 |
| 20260904074602 | 75 | 158 | 0.0 | 0.0 | 0.00 | 0.55 | 0.00 | 94 | 1009.2 |
| 20260904074315 | 75 | 157 | 0.0 | 0.0 | 0.00 | 0.55 | 0.00 | 94 | 1009.1 |
| 20260904074220 | 75 | 157 | 0.0 | 0.0 | 0.00 | 0.55 | 0.00 | 94 | 1009.1 |
| 20260904074101 | 75 | 158 | 0.0 | 0.0 | 0.00 | 0.55 | 0.00 | 94 | 1009.1 |
| 20260904073919 | 75 | 157 | 0.0 | 0.0 | 0.00 | 0.55 | 0.00 | 94 | 1009.1 |
| 20260904073719 | 75 | 157 | 0.0 | 0.0 | 0.00 | 0.55 | 0.00 | 94 | 1009.1 |
| 20260904073601 | 75 | 157 | 0.0 | 0.0 | 0.00 | 0.55 | 0.00 | 94 | 1009.1 |
| 20260904073521 | 75 | 158 | 0.0 | 0.0 | 0.00 | 0.55 | 0.00 | 94 | 1009.1 |
| 20260904073320 | 75 | 157 | 0.0 | 0.0 | 0.00 | 0.55 | 0.00 | 94 | 1009.2 |
| 20260904073223 | 75 | 155 | 0.0 | 0.0 | 0.00 | 0.55 | 0.00 | 94 | 1009.1 |
| 20260904073101 | 75 | 158 | 0.0 | 0.0 | 0.00 | 0.55 | 0.00 | 94 | 1009.2 |
| 20260904072918 | 75 | 158 | 0.0 | 0.0 | 0.00 | 0.55 | 0.00 | 94 | 1009.1 |
| 20260904072903 | 75 | 158 | 0.0 | 0.0 | 0.00 | 0.55 | 0.00 | 94 | 1009.1 |
| 20260904072858 | 75 | 157 | 0.0 | 0.0 | 0.00 | 0.55 | 0.00 | 94 | 1009.1 |
| 20260904072832 | 75 | 157 | 0.0 | 0.0 | 0.00 | 0.55 | 0.00 | 94 | 1009.2 |
| 20260904072323 | 75 | 157 | 0.0 | 0.0 | 0.00 | 0.55 | 0.00 | 94 | 1009.1 |
| 20260904072218 | 75 | 157 | 0.0 | 0.0 | 0.00 | 0.55 | 0.00 | 94 | 1009.1 |
| 20260904072101 | 75 | 158 | 0.0 | 0.0 | 0.00 | 0.55 | 0.00 | 94 | 1009.1 |
| 20260904071917 | 76 | 158 | 0.0 | 0.0 | 0.00 | 0.55 | 0.00 | 94 | 1009.1 |
| 20260904071859 | 76 | 158 | 0.0 | 0.0 | 0.00 | 0.55 | 0.00 | 94 | 1009.1 |
| 20260904071834 | 76 | 157 | 0.0 | 0.0 | 0.00 | 0.55 | 0.00 | 94 | 1009.1 |
| 20260904071522 | 76 | 158 | 0.0 | 0.0 | 0.00 | 0.55 | 0.00 | 94 | 1009.1 |
| 20260904071318 | 76 | 157 | 0.0 | 0.0 | 0.00 | 0.55 | 0.00 | 94 | 1009.2 |
| 20260904071224 | 76 | 158 | 0.0 | 0.0 | 0.00 | 0.55 | 0.00 | 93 | 1009.1 |
| 20260904071100 | 76 | 157 | 0.0 | 0.0 | 0.00 | 0.55 | 0.00 | 93 | 1009.1 |
| 20260904070934 | 76 | 158 | 0.0 | 0.0 | 0.00 | 0.55 | 0.00 | 93 | 1009.2 |
| 20260904070917 | 76 | 158 | 0.0 | 0.0 | 0.00 | 0.55 | 0.00 | 93 | 1009.1 |
| 20260904070853 | 76 | 158 | 0.0 | 0.0 | 0.00 | 0.55 | 0.00 | 93 | 1009.1 |
| 20260904070533 | 76 | 158 | 0.0 | 0.0 | 0.00 | 0.55 | 0.00 | 93 | 1009.1 |
| 20260904070318 | 76 | 158 | 0.0 | 0.0 | 0.00 | 0.55 | 0.00 | 93 | 1009.2 |
| 20260904070118 | 76 | 158 | 0.0 | 0.0 | 0.00 | 0.55 | 0.00 | 93 | 1009.1 |
| 20260904070031 | 76 | 158 | 0.0 | 0.0 | 0.00 | 0.55 | 0.00 | 93 | 1009.1 |
| 20260904065916 | 76 | 157 | 0.0 | 0.0 | 0.00 | 0.55 | 0.00 | 93 | 1009.2 |
| 20260904065815 | 76 | 157 | 0.0 | 0.0 | 0.00 | 0.55 | 0.00 | 93 | 1009.2 |
| 20260904065523 | 76 | 157 | 0.0 | 0.0 | 0.00 | 0.55 | 0.00 | 93 | 1009.2 |
| 20260904065419 | 76 | 158 | 0.0 | 0.0 | 0.00 | 0.55 | 0.00 | 93 | 1009.2 |
| 20260904065116 | 76 | 157 | 0.0 | 0.0 | 0.00 | 0.55 | 0.00 | 93 | 1009.2 |
| 20260904065026 | 76 | 155 | 0.0 | 0.0 | 0.00 | 0.55 | 0.00 | 93 | 1009.1 |
| 20260904064918 | 76 | 158 | 0.0 | 0.0 | 0.00 | 0.55 | 0.00 | 93 | 1009.1 |
| 20260904064819 | 76 | 158 | 0.0 | 0.0 | 0.00 | 0.55 | 0.00 | 93 | 1009.1 |
| 20260904064522 | 76 | 157 | 0.0 | 0.0 | 0.00 | 0.55 | 0.00 | 93 | 1009.2 |
| 20260904064419 | 76 | 157 | 0.0 | 0.0 | 0.00 | 0.55 | 0.00 | 93 | 1009.1 |
| 20260904064116 | 77 | 155 | 0.0 | 0.0 | 0.00 | 0.55 | 0.00 | 93 | 1009.2 |
| 20260904064025 | 77 | 158 | 0.0 | 0.0 | 0.00 | 0.55 | 0.00 | 93 | 1009.2 |
| 20260904063919 | 76 | 157 | 0.0 | 0.0 | 0.00 | 0.55 | 0.00 | 93 | 1009.2 |
| 20260904063717 | 77 | 157 | 0.0 | 0.0 | 0.00 | 0.55 | 0.00 | 93 | 1009.2 |
| 20260904063525 | 77 | 158 | 0.0 | 0.0 | 0.00 | 0.55 | 0.00 | 93 | 1009.3 |
| 20260904063521 | 77 | 157 | 0.0 | 0.0 | 0.00 | 0.55 | 0.00 | 93 | 1009.3 |
| 20260904063421 | 77 | 158 | 0.0 | 0.0 | 0.00 | 0.55 | 0.00 | 93 | 1009.3 |
| 20260904063117 | 77 | 158 | 0.0 | 0.0 | 0.00 | 0.55 | 0.00 | 93 | 1009.1 |
| 20260904063035 | 77 | 157 | 0.0 | 0.0 | 0.00 | 0.55 | 0.00 | 93 | 1009.2 |
| 20260904063024 | 77 | 157 | 0.0 | 0.0 | 0.00 | 0.55 | 0.00 | 93 | 1009.1 |
| 20260904062718 | 77 | 157 | 0.0 | 0.0 | 0.00 | 0.55 | 0.00 | 93 | 1009.2 |
| 20260904062517 | 77 | 158 | 0.0 | 0.0 | 0.00 | 0.55 | 0.00 | 93 | 1009.2 |
| 20260904062317 | 77 | 157 | 0.0 | 0.0 | 0.00 | 0.55 | 0.00 | 93 | 1009.3 |
| 20260904062119 | 77 | 158 | 0.0 | 0.0 | 0.00 | 0.55 | 0.00 | 93 | 1009.3 |
| 20260904062034 | 77 | 157 | 0.0 | 0.0 | 0.00 | 0.55 | 0.00 | 93 | 1009.2 |
| 20260904062023 | 77 | 158 | 0.0 | 0.0 | 0.00 | 0.55 | 0.00 | 93 | 1009.2 |
| 20260904061727 | 77 | 158 | 0.0 | 0.0 | 0.00 | 0.55 | 0.00 | 92 | 1009.3 |
| 20260904061634 | 77 | 158 | 0.0 | 0.0 | 0.00 | 0.55 | 0.00 | 92 | 1009.3 |
| 20260904061533 | 77 | 158 | 0.0 | 0.0 | 0.00 | 0.55 | 0.00 | 92 | 1009.3 |
| 20260904061321 | 77 | 158 | 0.0 | 0.0 | 0.00 | 0.55 | 0.00 | 92 | 1009.3 |
| 20260904061118 | 77 | 158 | 0.0 | 0.0 | 0.00 | 0.55 | 0.00 | 92 | 1009.2 |
| 20260904061025 | 77 | 158 | 0.0 | 0.0 | 0.00 | 0.55 | 0.00 | 92 | 1009.3 |
| 20260904060921 | 77 | 158 | 0.0 | 0.0 | 0.00 | 0.55 | 0.00 | 92 | 1009.3 |
| 20260904060727 | 77 | 158 | 0.0 | 0.0 | 0.00 | 0.55 | 0.00 | 92 | 1009.2 |
| 20260904060532 | 77 | 155 | 0.0 | 0.0 | 0.00 | 0.55 | 0.00 | 92 | 1009.3 |
| 20260904060319 | 77 | 157 | 0.0 | 0.0 | 0.00 | 0.55 | 0.00 | 92 | 1009.3 |
| 20260904060119 | 77 | 157 | 0.0 | 0.0 | 0.00 | 0.55 | 0.00 | 92 | 1009.2 |
| 20260904060020 | 77 | 155 | 0.0 | 0.0 | 0.00 | 0.55 | 0.00 | 92 | 1009.2 |
| 20260904055917 | 77 | 158 | 0.0 | 0.0 | 0.00 | 0.55 | 0.00 | 92 | 1009.3 |
| 20260904055818 | 77 | 157 | 0.0 | 0.0 | 0.00 | 0.55 | 0.00 | 92 | 1009.2 |
| 20260904055633 | 77 | 157 | 0.0 | 0.0 | 0.00 | 0.55 | 0.00 | 92 | 1009.3 |
| 20260904055521 | 77 | 157 | 0.0 | 0.0 | 0.00 | 0.55 | 0.00 | 92 | 1009.3 |
| 20260904055319 | 77 | 158 | 0.0 | 0.0 | 0.00 | 0.55 | 0.00 | 92 | 1009.3 |
| 20260904055117 | 77 | 155 | 0.0 | 0.0 | 0.00 | 0.55 | 0.00 | 92 | 1009.2 |
| 20260904055016 | 77 | 158 | 0.0 | 0.0 | 0.00 | 0.55 | 0.00 | 92 | 1009.3 |
| 20260904054916 | 77 | 157 | 0.0 | 0.0 | 0.00 | 0.55 | 0.00 | 92 | 1009.3 |
| 20260904054716 | 77 | 157 | 0.0 | 0.0 | 0.00 | 0.55 | 0.00 | 92 | 1009.3 |
| 20260904054522 | 77 | 158 | 0.0 | 0.0 | 0.00 | 0.55 | 0.00 | 92 | 1009.3 |
| 20260904054419 | 77 | 157 | 0.0 | 0.0 | 0.00 | 0.55 | 0.00 | 92 | 1009.2 |
| 20260904054223 | 77 | 158 | 0.0 | 0.0 | 0.00 | 0.55 | 0.00 | 92 | 1009.2 |
| 20260904054019 | 77 | 159 | 0.0 | 0.0 | 0.00 | 0.55 | 0.00 | 92 | 1009.3 |
| 20260904053918 | 77 | 157 | 0.0 | 0.0 | 0.00 | 0.55 | 0.00 | 92 | 1009.2 |
| 20260904053719 | 77 | 157 | 0.0 | 0.0 | 0.00 | 0.55 | 0.00 | 92 | 1009.2 |
| 20260904053520 | 77 | 157 | 0.0 | 0.0 | 0.00 | 0.55 | 0.00 | 92 | 1009.2 |
| 20260904053320 | 77 | 157 | 0.0 | 0.0 | 0.00 | 0.55 | 0.00 | 92 | 1009.2 |
| 20260904053120 | 77 | 158 | 0.0 | 0.0 | 0.00 | 0.55 | 0.00 | 92 | 1009.3 |
| 20260904053028 | 77 | 157 | 0.0 | 0.0 | 0.00 | 0.55 | 0.00 | 92 | 1009.2 |
| 20260904053018 | 77 | 157 | 0.0 | 0.0 | 0.00 | 0.55 | 0.00 | 92 | 1009.3 |
| 20260904052718 | 78 | 158 | 0.0 | 0.0 | 0.00 | 0.55 | 0.00 | 92 | 1009.2 |
| 20260904052626 | 78 | 157 | 0.0 | 0.0 | 0.00 | 0.55 | 0.00 | 91 | 1009.2 |
| 20260904052523 | 78 | 157 | 0.0 | 0.0 | 0.00 | 0.55 | 0.00 | 91 | 1009.2 |
| 20260904052318 | 77 | 155 | 0.0 | 0.0 | 0.00 | 0.55 | 0.00 | 91 | 1009.2 |
| 20260904052126 | 77 | 157 | 0.0 | 0.0 | 0.00 | 0.55 | 0.00 | 91 | 1009.2 |
| 20260904052033 | 78 | 158 | 0.0 | 0.0 | 0.00 | 0.55 | 0.00 | 91 | 1009.2 |
| 20260904052021 | 78 | 157 | 0.0 | 0.0 | 0.00 | 0.55 | 0.00 | 91 | 1009.1 |
| 20260904051718 | 78 | 158 | 0.0 | 0.0 | 0.00 | 0.55 | 0.00 | 91 | 1009.2 |
| 20260904051518 | 78 | 157 | 0.0 | 0.0 | 0.00 | 0.55 | 0.00 | 91 | 1009.2 |
| 20260904051320 | 78 | 158 | 0.0 | 0.0 | 0.00 | 0.55 | 0.00 | 91 | 1009.2 |
| 20260904051217 | 78 | 157 | 0.0 | 0.0 | 0.00 | 0.55 | 0.00 | 91 | 1009.2 |
| 20260904051031 | 78 | 157 | 0.0 | 0.0 | 0.00 | 0.55 | 0.00 | 91 | 1009.2 |
| 20260904050917 | 78 | 157 | 0.0 | 0.0 | 0.00 | 0.55 | 0.00 | 91 | 1009.2 |
| 20260904050719 | 78 | 159 | 0.0 | 0.0 | 0.00 | 0.55 | 0.00 | 91 | 1009.1 |
| 20260904050626 | 78 | 157 | 0.0 | 0.0 | 0.00 | 0.55 | 0.00 | 91 | 1009.2 |
| 20260904050521 | 78 | 157 | 0.0 | 0.0 | 0.00 | 0.55 | 0.00 | 91 | 1009.2 |
| 20260904050316 | 78 | 157 | 0.0 | 0.0 | 0.00 | 0.55 | 0.00 | 91 | 1009.2 |
| 20260904050120 | 78 | 158 | 0.0 | 0.0 | 0.00 | 0.55 | 0.00 | 91 | 1009.1 |
| 20260904050018 | 78 | 158 | 0.0 | 0.0 | 0.00 | 0.55 | 0.00 | 91 | 1009.1 |
| 20260904045918 | 78 | 155 | 0.0 | 0.0 | 0.00 | 0.55 | 0.55 | 91 | 1009.2 |
| 20260904045819 | 78 | 157 | 0.0 | 0.0 | 0.00 | 0.55 | 0.55 | 91 | 1009.2 |
| 20260904045505 | 78 | 157 | 0.0 | 0.0 | 0.00 | 0.55 | 0.55 | 91 | 1009.1 |
| 20260904045316 | 78 | 157 | 0.0 | 0.0 | 0.00 | 0.55 | 0.55 | 91 | 1009.2 |
| 20260904045219 | 78 | 157 | 0.0 | 0.0 | 0.00 | 0.55 | 0.55 | 91 | 1009.1 |
| 20260904045006 | 78 | 155 | 0.0 | 0.0 | 0.00 | 0.55 | 0.55 | 91 | 1009.1 |
| 20260904044915 | 78 | 157 | 0.0 | 0.0 | 0.00 | 0.55 | 0.55 | 91 | 1009.1 |
| 20260904044804 | 78 | 157 | 0.0 | 0.0 | 0.00 | 0.55 | 0.55 | 91 | 1009.2 |
| 20260904044754 | 78 | 157 | 0.0 | 0.0 | 0.00 | 0.55 | 0.55 | 91 | 1009.2 |
| 20260904044319 | 78 | 155 | 0.0 | 0.0 | 0.00 | 0.55 | 0.55 | 90 | 1009.1 |
| 20260904044306 | 78 | 155 | 0.0 | 0.0 | 0.00 | 0.55 | 0.55 | 90 | 1009.2 |
| 20260904044302 | 78 | 157 | 0.0 | 0.0 | 0.00 | 0.55 | 0.55 | 90 | 1009.2 |
| 20260904044243 | 78 | 157 | 0.0 | 0.0 | 0.00 | 0.55 | 0.55 | 90 | 1009.1 |